KK6MIG-13 Weather Reports


time (UTC)temp
F
wind
direction
speed
knots
gust
knots
rain 1hr
in
rain 24hr
in
rain mn
in
humidity
%
barometer
mb
20260507080510 53 278 6.1 10.4 0.00 0.00 0.00 1 1018.3
20260507080410 53 292 6.1 10.4 0.00 0.00 0.00 1 1018.2
20260507080310 53 283 6.1 10.4 0.00 0.00 0.00 1 1018.2
20260507080209 53 279 6.1 10.4 0.00 0.00 0.00 1 1018.2
20260507080109 53 236 5.2 10.4 0.00 0.00 0.00 1 1018.2
20260507080009 53 304 6.1 10.4 0.00 0.00 0.00 1 1018.2
20260507075909 53 299 5.2 10.4 0.00 0.00 0.00 1 1018.2
20260507075803 53 284 5.2 10.4 0.00 0.00 0.00 1 1018.2
20260507075703 53 297 5.2 9.6 0.00 0.00 0.00 1 1018.2
20260507075604 53 263 5.2 9.6 0.00 0.00 0.00 1 1018.2
20260507075504 53 265 5.2 9.6 0.00 0.00 0.00 1 1018.2
20260507075403 53 251 5.2 9.6 0.00 0.00 0.00 1 1018.3
20260507075257 53 263 5.2 9.6 0.00 0.00 0.00 1 1018.3
20260507075157 53 269 5.2 9.6 0.00 0.00 0.00 1 1018.2
20260507075057 53 260 5.2 9.6 0.00 0.00 0.00 1 1018.2
20260507074958 53 283 6.1 12.2 0.00 0.00 0.00 1 1018.2
20260507074857 53 248 6.1 12.2 0.00 0.00 0.00 1 1018.3
20260507074756 53 286 6.1 12.2 0.00 0.00 0.00 1 1018.2
20260507074654 53 233 6.1 12.2 0.00 0.00 0.00 1 1018.3
20260507074554 53 260 6.1 12.2 0.00 0.00 0.00 1 1018.2
20260507074453 53 258 7.0 12.2 0.00 0.00 0.00 1 1018.3
20260507074351 53 265 7.0 12.2 0.00 0.00 0.00 1 1018.2
20260507074248 53 280 7.0 12.2 0.00 0.00 0.00 1 1018.2
20260507074148 53 263 7.0 12.2 0.00 0.00 0.00 1 1018.2
20260507074047 53 286 6.1 12.2 0.00 0.00 0.00 1 1018.2
20260507073947 53 246 6.1 10.4 0.00 0.00 0.00 1 1018.2
20260507073845 53 281 5.2 10.4 0.00 0.00 0.00 1 1018.2
20260507073739 53 243 6.1 10.4 0.00 0.00 0.00 1 1018.2
20260507073639 53 255 5.2 10.4 0.00 0.00 0.00 1 1018.2
20260507073539 53 267 5.2 10.4 0.00 0.00 0.00 1 1018.2
20260507073439 53 270 5.2 10.4 0.00 0.00 0.00 1 1018.2
20260507073339 53 279 5.2 10.4 0.00 0.00 0.00 1 1018.2
20260507073238 53 296 5.2 10.4 0.00 0.00 0.00 1 1018.2
20260507073138 53 270 6.1 10.4 0.00 0.00 0.00 1 1018.2
20260507073037 53 250 6.1 10.4 0.00 0.00 0.00 1 1018.2
20260507072937 53 248 6.1 11.3 0.00 0.00 0.00 1 1018.2
20260507072837 53 273 6.1 11.3 0.00 0.00 0.00 1 1018.2
20260507072737 53 240 7.0 11.3 0.00 0.00 0.00 1 1018.2
20260507072645 53 288 7.0 11.3 0.00 0.00 0.00 1 1018.1
20260507072641 53 264 7.0 11.3 0.00 0.00 0.00 1 1018.2
20260507072438 53 262 7.0 11.3 0.00 0.00 0.00 1 1018.2
20260507072338 53 279 7.0 11.3 0.00 0.00 0.00 1 1018.2
20260507072236 53 247 7.0 11.3 0.00 0.00 0.00 1 1018.1
20260507072135 53 244 7.0 12.2 0.00 0.00 0.00 1 1018.2
20260507072036 53 259 7.0 12.2 0.00 0.00 0.00 1 1018.2
20260507071936 53 273 7.0 12.2 0.00 0.00 0.00 1 1018.2
20260507071836 53 257 7.0 12.2 0.00 0.00 0.00 1 1018.2
20260507071735 53 267 7.0 12.2 0.00 0.00 0.00 1 1018.2
20260507071635 53 274 6.1 12.2 0.00 0.00 0.00 1 1018.2
20260507071529 53 309 6.1 12.2 0.00 0.00 0.00 1 1018.2
20260507071430 53 294 6.1 12.2 0.00 0.00 0.00 1 1018.1
20260507071329 53 260 6.1 12.2 0.00 0.00 0.00 1 1018.2
20260507071229 53 265 6.1 12.2 0.00 0.00 0.00 1 1018.2
20260507071129 53 289 6.1 12.2 0.00 0.00 0.00 1 1018.2
20260507071024 53 273 6.1 11.3 0.00 0.00 0.00 1 1018.2
20260507070923 53 294 6.1 11.3 0.00 0.00 0.00 1 1018.2
20260507070823 53 277 6.1 11.3 0.00 0.00 0.00 1 1018.2
20260507070723 53 286 6.1 11.3 0.00 0.00 0.00 1 1018.1
20260507070623 53 280 6.1 11.3 0.00 0.00 0.00 1 1018.2
20260507070517 53 292 6.1 11.3 0.00 0.00 0.00 1 1018.2
20260507070417 53 275 7.0 11.3 0.00 0.00 0.00 1 1018.2
20260507070318 53 284 6.1 11.3 0.00 0.00 0.00 1 1018.2
20260507070218 53 267 6.1 11.3 0.00 0.00 0.00 1 1018.2
20260507070117 53 241 6.1 11.3 0.00 0.00 0.00 1 1018.2
20260507070015 53 321 6.1 11.3 0.00 0.00 0.00 1 1018.2
20260507065932 53 278 6.1 11.3 0.00 0.00 0.00 1 1018.2
20260507065928 53 279 6.1 11.3 0.00 0.00 0.00 1 1018.2
20260507065924 53 276 6.1 11.3 0.00 0.00 0.00 1 1018.2
20260507065614 53 251 6.1 11.3 0.00 0.00 0.00 1 1018.2
20260507065514 53 273 5.2 10.4 0.00 0.00 0.00 1 1018.2
20260507065415 53 254 5.2 9.6 0.00 0.00 0.00 1 1018.2
20260507065315 53 270 5.2 9.6 0.00 0.00 0.00 1 1018.2
20260507065215 53 275 6.1 9.6 0.00 0.00 0.00 1 1018.2
20260507065115 53 292 6.1 9.6 0.00 0.00 0.00 1 1018.3
20260507065015 53 254 6.1 10.4 0.00 0.00 0.00 1 1018.2
20260507064913 53 264 6.1 10.4 0.00 0.00 0.00 1 1018.3
20260507064809 53 278 7.0 10.4 0.00 0.00 0.00 1 1018.3
20260507064709 53 246 7.0 10.4 0.00 0.00 0.00 1 1018.3
20260507064609 53 259 7.0 12.2 0.00 0.00 0.00 1 1018.3
20260507064508 53 277 7.8 12.2 0.00 0.00 0.00 1 1018.2
20260507064407 53 265 7.8 13.9 0.00 0.00 0.00 1 1018.2
20260507064303 53 292 7.8 13.9 0.00 0.00 0.00 1 1018.2
20260507064203 53 287 7.8 13.9 0.00 0.00 0.00 1 1018.2
20260507064102 53 275 7.8 13.9 0.00 0.00 0.00 1 1018.2
20260507064001 53 285 7.8 13.9 0.00 0.00 0.00 1 1018.2
20260507063900 53 275 7.8 13.9 0.00 0.00 0.00 1 1018.2
20260507063754 53 265 7.8 13.9 0.00 0.00 0.00 1 1018.2
20260507063654 53 302 7.8 13.9 0.00 0.00 0.00 1 1018.2
20260507063554 53 295 7.8 13.9 0.00 0.00 0.00 1 1018.2
20260507063454 53 288 7.0 13.9 0.00 0.00 0.00 1 1018.2
20260507063354 53 288 7.0 13.0 0.00 0.00 0.00 1 1018.2
20260507063254 53 279 7.0 13.0 0.00 0.00 0.00 1 1018.2
20260507063153 53 267 7.0 13.0 0.00 0.00 0.00 1 1018.2
20260507063053 53 253 7.0 13.0 0.00 0.00 0.00 1 1018.2
20260507062953 53 280 7.0 13.0 0.00 0.00 0.00 1 1018.2
20260507062852 53 293 7.0 13.0 0.00 0.00 0.00 1 1018.2
20260507062752 53 293 7.0 13.0 0.00 0.00 0.00 1 1018.3
20260507062652 53 270 7.0 12.2 0.00 0.00 0.00 1 1018.2
20260507062553 53 279 7.0 12.2 0.00 0.00 0.00 1 1018.2
20260507062453 53 295 7.0 12.2 0.00 0.00 0.00 1 1018.3
20260507062353 53 284 6.1 12.2 0.00 0.00 0.00 1 1018.2
20260507062259 53 263 7.0 12.2 0.00 0.00 0.00 1 1018.2
20260507062254 53 267 6.1 12.2 0.00 0.00 0.00 1 1018.3
20260507062050 53 293 7.0 12.2 0.00 0.00 0.00 1 1018.3
20260507061949 53 258 7.0 12.2 0.00 0.00 0.00 1 1018.2
20260507061849 53 280 7.0 12.2 0.00 0.00 0.00 1 1018.3
20260507061748 53 296 7.8 12.2 0.00 0.00 0.00 1 1018.3
20260507061648 53 266 7.0 11.3 0.00 0.00 0.00 1 1018.2
20260507061546 53 271 7.0 11.3 0.00 0.00 0.00 1 1018.2
20260507061447 53 279 7.0 11.3 0.00 0.00 0.00 1 1018.2
20260507061347 53 282 7.0 11.3 0.00 0.00 0.00 1 1018.2
20260507061247 53 294 7.0 11.3 0.00 0.00 0.00 1 1018.2
20260507061147 53 269 7.0 11.3 0.00 0.00 0.00 1 1018.3
20260507061047 53 281 7.0 13.9 0.00 0.00 0.00 1 1018.3
20260507060944 53 257 7.0 13.9 0.00 0.00 0.00 1 1018.2
20260507060844 53 285 7.0 13.9 0.00 0.00 0.00 1 1018.2
20260507060744 53 279 7.0 13.9 0.00 0.00 0.00 1 1018.3
20260507060645 53 258 7.0 13.9 0.00 0.00 0.00 1 1018.2
20260507060545 53 302 7.0 13.9 0.00 0.00 0.00 1 1018.2
20260507060443 53 285 7.0 13.9 0.00 0.00 0.00 1 1018.2
20260507060342 53 281 7.8 13.9 0.00 0.00 0.00 1 1018.2
20260507060242 53 300 7.8 13.9 0.00 0.00 0.00 1 1018.2
20260507060142 53 255 7.8 13.9 0.00 0.00 0.00 1 1018.2
20260507060042 53 288 7.8 13.0 0.00 0.00 0.00 1 1018.2
20260507055942 53 277 7.8 13.0 0.00 0.00 0.00 1 1018.2
20260507055845 53 281 8.7 13.0 0.00 0.00 0.00 1 1018.2
20260507055841 53 282 7.8 13.0 0.00 0.00 0.00 1 1018.2
20260507055636 53 295 8.7 13.0 0.00 0.00 0.00 1 1018.2
20260507055536 53 271 8.7 13.0 0.00 0.00 0.00 1 1018.2
20260507055449 53 276 7.8 13.0 0.00 0.00 0.00 1 1018.1
20260507055445 53 265 7.8 13.0 0.00 0.00 0.00 1 1018.1
20260507055440 53 275 7.8 13.0 0.00 0.00 0.00 1 1018.2
20260507055140 53 275 7.0 13.0 0.00 0.00 0.00 1 1018.1
20260507055136 53 261 7.0 13.0 0.00 0.00 0.00 1 1018.1
20260507054933 53 270 7.0 13.0 0.00 0.00 0.00 1 1018.2
20260507054832 53 290 7.0 13.0 0.00 0.00 0.00 1 1018.1
20260507054732 53 304 7.0 13.0 0.00 0.00 0.00 1 1018.1
20260507054632 53 271 7.0 14.8 0.00 0.00 0.00 1 1018.1
20260507054532 53 285 7.0 14.8 0.00 0.00 0.00 1 1018.1
20260507054433 53 289 7.0 14.8 0.00 0.00 0.00 1 1018.1
20260507054331 53 255 7.8 14.8 0.00 0.00 0.00 1 1018.1
20260507054230 53 250 7.8 14.8 0.00 0.00 0.00 1 1018.1
20260507054130 53 277 7.8 14.8 0.00 0.00 0.00 1 1018.1
20260507054030 53 271 7.8 14.8 0.00 0.00 0.00 1 1018.1
20260507053931 53 318 7.8 14.8 0.00 0.00 0.00 1 1018.1
20260507053831 53 286 8.7 14.8 0.00 0.00 0.00 1 1018.1
20260507053729 53 277 7.8 13.9 0.00 0.00 0.00 1 1018.2
20260507053625 53 312 7.8 13.9 0.00 0.00 0.00 1 1018.2
20260507053525 53 248 7.8 13.9 0.00 0.00 0.00 1 1018.2
20260507053424 53 282 7.8 13.9 0.00 0.00 0.00 1 1018.1
20260507053324 53 282 7.8 13.9 0.00 0.00 0.00 1 1018.1
20260507053224 53 273 7.0 13.9 0.00 0.00 0.00 1 1018.2
20260507053119 53 250 7.0 13.9 0.00 0.00 0.00 1 1018.2
20260507053018 53 277 7.0 13.9 0.00 0.00 0.00 1 1018.2
20260507052918 53 291 7.0 13.9 0.00 0.00 0.00 1 1018.2
20260507052818 54 252 7.0 13.9 0.00 0.00 0.00 1 1018.3
20260507052718 54 326 7.0 13.9 0.00 0.00 0.00 1 1018.2
20260507052612 54 271 7.8 14.8 0.00 0.00 0.00 1 1018.2
20260507052512 53 249 7.8 14.8 0.00 0.00 0.00 1 1018.2
20260507052412 53 267 7.8 14.8 0.00 0.00 0.00 1 1018.2
20260507052312 53 292 7.8 14.8 0.00 0.00 0.00 1 1018.2
20260507052212 53 257 8.7 14.8 0.00 0.00 0.00 1 1018.2
20260507052106 53 257 8.7 14.8 0.00 0.00 0.00 1 1018.2
20260507052006 53 279 8.7 14.8 0.00 0.00 0.00 1 1018.2
20260507051906 53 292 9.6 16.5 0.00 0.00 0.00 1 1018.2
20260507051806 53 281 9.6 16.5 0.00 0.00 0.00 1 1018.2
20260507051706 53 301 9.6 16.5 0.00 0.00 0.00 1 1018.2
20260507051600 53 284 9.6 16.5 0.00 0.00 0.00 1 1018.2
20260507051500 53 260 9.6 16.5 0.00 0.00 0.00 1 1018.2
20260507051400 53 267 9.6 16.5 0.00 0.00 0.00 1 1018.3
20260507051300 53 326 9.6 16.5 0.00 0.00 0.00 1 1018.3
20260507051200 53 242 9.6 16.5 0.00 0.00 0.00 1 1018.2
20260507051055 54 236 9.6 16.5 0.00 0.00 0.00 1 1018.3
20260507050954 54 309 9.6 16.5 0.00 0.00 0.00 1 1018.2
20260507050854 54 261 9.6 14.8 0.00 0.00 0.00 1 1018.3
20260507050803 54 263 8.7 14.8 0.00 0.00 0.00 1 1018.3
20260507050758 54 271 8.7 14.8 0.00 0.00 0.00 1 1018.2
20260507050549 54 279 8.7 14.8 0.00 0.00 0.00 1 1018.3
20260507050448 54 261 8.7 14.8 0.00 0.00 0.00 1 1018.2
20260507050348 54 225 8.7 14.8 0.00 0.00 0.00 1 1018.2
20260507050249 54 288 8.7 14.8 0.00 0.00 0.00 1 1018.3
20260507050148 54 264 8.7 14.8 0.00 0.00 0.00 1 1018.2
20260507050051 54 277 8.7 14.8 0.00 0.00 0.00 1 1018.2
20260507050046 54 307 8.7 14.8 0.00 0.00 0.00 1 1018.3
20260507045842 54 232 9.6 14.8 0.00 0.00 0.00 1 1018.2
20260507045742 54 277 9.6 14.8 0.00 0.00 0.00 1 1018.2
20260507045642 54 251 8.7 14.8 0.00 0.00 0.00 1 1018.2
20260507045536 54 273 8.7 14.8 0.00 0.00 0.00 1 1018.2
20260507045436 54 280 8.7 14.8 0.00 0.00 0.00 1 1018.2
20260507045336 54 268 8.7 14.8 0.00 0.00 0.00 1 1018.1
20260507045237 54 284 8.7 14.8 0.00 0.00 0.00 1 1018.2
20260507045136 54 242 7.8 14.8 0.00 0.00 0.00 1 1018.1
20260507045030 54 269 7.8 14.8 0.00 0.00 0.00 1 1018.2
20260507044930 54 258 7.8 14.8 0.00 0.00 0.00 1 1018.2
20260507044831 54 262 7.8 14.8 0.00 0.00 0.00 1 1018.2
20260507044731 54 255 7.8 14.8 0.00 0.00 0.00 1 1018.3
20260507044629 54 249 7.8 14.8 0.00 0.00 0.00 1 1018.3
20260507044524 54 290 7.8 14.8 0.00 0.00 0.00 1 1018.2
20260507044425 54 302 7.8 14.8 0.00 0.00 0.00 1 1018.2
20260507044325 54 266 7.8 14.8 0.00 0.00 0.00 1 1018.2
20260507044224 54 284 8.7 14.8 0.00 0.00 0.00 1 1018.2
20260507044123 54 274 9.6 16.5 0.00 0.00 0.00 1 1018.2
20260507044017 54 276 9.6 16.5 0.00 0.00 0.00 1 1018.2
20260507043916 54 275 9.6 18.2 0.00 0.00 0.00 1 1018.2
20260507043816 54 277 9.6 18.2 0.00 0.00 0.00 1 1018.2
20260507043716 54 315 10.4 18.2 0.00 0.00 0.00 1 1018.2
20260507043619 54 277 10.4 18.2 0.00 0.00 0.00 1 1018.1
20260507043615 54 256 10.4 18.2 0.00 0.00 0.00 1 1018.2
20260507043410 54 282 10.4 18.2 0.00 0.00 0.00 1 1018.2
20260507043310 54 284 9.6 18.2 0.00 0.00 0.00 1 1018.2
20260507043210 54 329 9.6 18.2 0.00 0.00 0.00 1 1018.2
20260507043110 54 261 9.6 18.2 0.00 0.00 0.00 1 1018.2
20260507043004 54 265 9.6 18.2 0.00 0.00 0.00 1 1018.1
20260507042904 54 309 8.7 16.5 0.00 0.00 0.00 1 1018.2
20260507042804 54 273 8.7 16.5 0.00 0.00 0.00 1 1018.1
20260507042704 54 285 8.7 17.4 0.00 0.00 0.00 1 1018.1
20260507042604 54 254 8.7 17.4 0.00 0.00 0.00 1 1018.1
20260507042515 54 284 8.7 17.4 0.00 0.00 0.00 1 1018.1
20260507042511 54 290 8.7 17.4 0.00 0.00 0.00 1 1018.1
20260507042507 54 290 8.7 17.4 0.00 0.00 0.00 1 1018.1
20260507042158 54 279 8.7 17.4 0.00 0.00 0.00 1 1018.1
20260507042058 54 248 8.7 17.4 0.00 0.00 0.00 1 1018.1
20260507041953 54 289 8.7 17.4 0.00 0.00 0.00 1 1018.1
20260507041852 54 279 9.6 17.4 0.00 0.00 0.00 1 1018.0
20260507041752 54 288 9.6 17.4 0.00 0.00 0.00 1 1018.1
20260507041652 54 306 9.6 18.2 0.00 0.00 0.00 1 1018.1
20260507041554 54 277 9.6 18.2 0.00 0.00 0.00 1 1018.1
20260507041550 54 282 9.6 18.2 0.00 0.00 0.00 1 1018.1
20260507041347 54 240 9.6 18.2 0.00 0.00 0.00 1 1018.0
20260507041246 54 275 10.4 18.2 0.00 0.00 0.00 1 1018.0
20260507041146 54 280 10.4 18.2 0.00 0.00 0.00 1 1018.0
20260507041046 54 266 10.4 18.2 0.00 0.00 0.00 1 1018.0
20260507040941 54 254 10.4 18.2 0.00 0.00 0.00 1 1018.0
20260507040840 54 297 10.4 18.2 0.00 0.00 0.00 1 1018.0
20260507040740 54 296 10.4 18.2 0.00 0.00 0.00 1 1018.0
20260507040640 54 324 10.4 16.5 0.00 0.00 0.00 1 1017.9
20260507040540 54 300 10.4 16.5 0.00 0.00 0.00 1 1018.0
20260507040434 54 298 9.6 16.5 0.00 0.00 0.00 1 1018.0
20260507040334 54 269 9.6 16.5 0.00 0.00 0.00 1 1017.9
20260507040235 54 288 9.6 15.6 0.00 0.00 0.00 1 1018.0
20260507040134 54 281 10.4 15.6 0.00 0.00 0.00 1 1017.9
20260507040034 54 305 10.4 19.1 0.00 0.00 0.00 1 1018.0
20260507035828 54 283 9.6 19.1 0.00 0.00 0.00 1 1018.0
20260507035728 54 289 9.6 19.1 0.00 0.00 0.00 1 1017.9
20260507035628 54 272 10.4 19.1 0.00 0.00 0.00 1 1018.0
20260507035528 54 267 10.4 19.1 0.00 0.00 0.00 1 1017.9
20260507035422 54 301 10.4 19.1 0.00 0.00 0.00 1 1017.9
20260507035322 54 336 10.4 19.1 0.00 0.00 0.00 1 1017.9
20260507035230 54 270 10.4 19.1 0.00 0.00 0.00 1 1017.9
20260507035226 54 288 11.3 19.1 0.00 0.00 0.00 1 1017.9
20260507035021 54 298 10.4 19.1 0.00 0.00 0.00 1 1017.9
20260507034916 54 283 10.4 19.1 0.00 0.00 0.00 1 1017.9
20260507034817 54 265 10.4 19.1 0.00 0.00 0.00 1 1017.8
20260507034733 54 306 9.6 15.6 0.00 0.00 0.00 1 1017.9
20260507034728 54 261 8.7 15.6 0.00 0.00 0.00 1 1017.8
20260507034725 54 309 9.6 15.6 0.00 0.00 0.00 1 1017.9
20260507034410 54 268 8.7 15.6 0.00 0.00 0.00 1 1017.9
20260507034310 54 288 8.7 15.6 0.00 0.00 0.00 1 1017.9
20260507034210 54 292 8.7 15.6 0.00 0.00 0.00 1 1017.8
20260507034110 55 280 8.7 15.6 0.00 0.00 0.00 1 1017.8
20260507034010 55 292 9.6 15.6 0.00 0.00 0.00 1 1017.8
20260507033904 55 257 8.7 15.6 0.00 0.00 0.00 1 1017.8
20260507033804 55 257 9.6 15.6 0.00 0.00 0.00 1 1017.8
20260507033713 55 282 9.6 15.6 0.00 0.00 0.00 1 1017.7
20260507033708 55 296 8.7 15.6 0.00 0.00 0.00 1 1017.7
20260507033504 55 275 9.6 15.6 0.00 0.00 0.00 1 1017.7
20260507033358 55 284 9.6 14.8 0.00 0.00 0.00 1 1017.7
20260507033258 55 277 9.6 17.4 0.00 0.00 0.00 1 1017.7
20260507033207 55 285 8.7 17.4 0.00 0.00 0.00 1 1017.6
20260507033202 55 294 8.7 17.4 0.00 0.00 0.00 1 1017.7
20260507032959 55 282 8.7 17.4 0.00 0.00 0.00 1 1017.7
20260507032852 55 287 8.7 17.4 0.00 0.00 0.00 1 1017.7
20260507032752 55 323 8.7 17.4 0.00 0.00 0.00 1 1017.7
20260507032652 55 294 8.7 17.4 0.00 0.00 0.00 1 1017.7
20260507032552 55 274 8.7 17.4 0.00 0.00 0.00 1 1017.6
20260507032451 55 279 9.6 17.4 0.00 0.00 0.00 1 1017.7
20260507032346 55 276 8.7 17.4 0.00 0.00 0.00 1 1017.7
20260507032246 55 300 8.7 17.4 0.00 0.00 0.00 1 1017.7
20260507032146 55 300 8.7 17.4 0.00 0.00 0.00 1 1017.7
20260507032046 55 292 9.6 17.4 0.00 0.00 0.00 1 1017.7
20260507031946 55 248 9.6 17.4 0.00 0.00 0.00 1 1017.6
20260507031840 55 277 9.6 17.4 0.00 0.00 0.00 1 1017.6
20260507031740 55 287 9.6 16.5 0.00 0.00 0.00 1 1017.6
20260507031640 55 249 9.6 15.6 0.00 0.00 0.00 1 1017.6
20260507031541 55 355 8.7 17.4 0.00 0.00 0.00 1 1017.6
20260507031440 55 284 9.6 17.4 0.00 0.00 0.00 1 1017.6
20260507031347 55 279 9.6 17.4 0.00 0.00 0.00 1 1017.6
20260507031238 55 288 9.6 17.4 0.00 0.00 0.00 1 1017.6
20260507031034 55 319 9.6 17.4 0.00 0.00 0.00 1 1017.6
20260507030933 55 275 9.6 17.4 0.00 0.00 0.00 1 1017.5
20260507030830 55 274 8.7 17.4 0.00 0.00 0.00 1 1017.5
20260507030728 55 260 8.7 17.4 0.00 0.00 0.00 1 1017.5
20260507030636 55 277 7.8 17.4 0.00 0.00 0.00 1 1017.5
20260507030632 55 271 7.8 17.4 0.00 0.00 0.00 1 1017.5
20260507030428 55 275 7.8 17.4 0.00 0.00 0.00 1 1017.5
20260507030322 56 291 7.0 16.5 0.00 0.00 0.00 1 1017.5
20260507030222 56 292 7.0 16.5 0.00 0.00 0.00 1 1017.5
20260507030130 56 280 7.8 15.6 0.00 0.00 0.00 1 1017.5
20260507030126 56 268 7.8 15.6 0.00 0.00 0.00 1 1017.5
20260507025922 56 305 7.8 15.6 0.00 0.00 0.00 1 1017.5
20260507025816 56 288 7.8 15.6 0.00 0.00 0.00 1 1017.5
20260507025716 56 277 8.7 15.6 0.00 0.00 0.00 1 1017.5
20260507025616 56 288 8.7 15.6 0.00 0.00 0.00 1 1017.5
20260507025516 56 308 8.7 15.6 0.00 0.00 0.00 1 1017.5
20260507025415 56 283 8.7 15.6 0.00 0.00 0.00 1 1017.5
20260507025310 56 338 8.7 15.6 0.00 0.00 0.00 1 1017.5
20260507025210 56 278 8.7 15.6 0.00 0.00 0.00 1 1017.5
20260507025110 56 284 8.7 15.6 0.00 0.00 0.00 1 1017.5
20260507025011 56 306 8.7 15.6 0.00 0.00 0.00 1 1017.6
20260507024909 56 252 8.7 15.6 0.00 0.00 0.00 1 1017.6
20260507024804 56 298 8.7 15.6 0.00 0.00 0.00 1 1017.6
20260507024704 56 263 8.7 15.6 0.00 0.00 0.00 1 1017.6
20260507024604 56 291 8.7 15.6 0.00 0.00 0.00 1 1017.6
20260507024504 56 265 8.7 15.6 0.00 0.00 0.00 1 1017.5
20260507024403 56 279 8.7 14.8 0.00 0.00 0.00 1 1017.5
20260507024258 56 281 9.6 14.8 0.00 0.00 0.00 1 1017.5
20260507024158 56 279 9.6 14.8 0.00 0.00 0.00 1 1017.5
20260507024057 56 281 9.6 14.8 0.00 0.00 0.00 1 1017.5
20260507023958 56 284 9.6 16.5 0.00 0.00 0.00 1 1017.5
20260507023857 56 282 9.6 16.5 0.00 0.00 0.00 1 1017.5
20260507023752 56 256 9.6 16.5 0.00 0.00 0.00 1 1017.5
20260507023652 56 285 9.6 16.5 0.00 0.00 0.00 1 1017.4
20260507023552 56 321 9.6 16.5 0.00 0.00 0.00 1 1017.4
20260507023452 56 270 9.6 16.5 0.00 0.00 0.00 1 1017.5
20260507023359 56 283 9.6 16.5 0.00 0.00 0.00 1 1017.5
20260507023250 56 285 9.6 16.5 0.00 0.00 0.00 1 1017.4
20260507023046 56 273 8.7 16.5 0.00 0.00 0.00 1 1017.5
20260507022946 56 281 9.6 15.6 0.00 0.00 0.00 1 1017.5
20260507022846 57 281 8.7 15.6 0.00 0.00 0.00 1 1017.5
20260507022740 57 290 8.7 15.6 0.00 0.00 0.00 1 1017.5
20260507022640 57 299 8.7 15.6 0.00 0.00 0.00 1 1017.5
20260507022539 57 305 8.7 16.5 0.00 0.00 0.00 1 1017.4
20260507022440 57 297 8.7 16.5 0.00 0.00 0.00 1 1017.4
20260507022339 57 276 8.7 16.5 0.00 0.00 0.00 1 1017.4
20260507022236 57 304 8.7 16.5 0.00 0.00 0.00 1 1017.5
20260507022149 57 276 9.6 16.5 0.00 0.00 0.00 1 1017.5
20260507022040 57 276 9.6 16.5 0.00 0.00 0.00 1 1017.5
20260507021833 57 304 8.7 16.5 0.00 0.00 0.00 1 1017.4
20260507021728 57 250 9.6 18.2 0.00 0.00 0.00 1 1017.5
20260507021628 57 264 8.7 18.2 0.00 0.00 0.00 1 1017.5
20260507021536 57 260 9.6 18.2 0.00 0.00 0.00 1 1017.5
20260507021532 57 264 8.7 18.2 0.00 0.00 0.00 1 1017.5
20260507021327 57 294 9.6 18.2 0.00 0.00 0.00 1 1017.5
20260507021222 57 271 9.6 18.2 0.00 0.00 0.00 1 1017.4
20260507021122 57 277 9.6 18.2 0.00 0.00 0.00 1 1017.5
20260507021022 57 300 9.6 18.2 0.00 0.00 0.00 1 1017.5
20260507020922 57 296 9.6 18.2 0.00 0.00 0.00 1 1017.5
20260507020821 57 291 9.6 18.2 0.00 0.00 0.00 1 1017.5
20260507020716 57 278 9.6 18.2 0.00 0.00 0.00 1 1017.5
20260507020616 57 273 9.6 18.2 0.00 0.00 0.00 1 1017.5
20260507020516 57 268 9.6 18.2 0.00 0.00 0.00 1 1017.5
20260507020416 57 267 9.6 18.2 0.00 0.00 0.00 1 1017.5
20260507020322 58 288 7.8 18.2 0.00 0.00 0.00 1 1017.6
20260507020318 57 282 8.7 18.2 0.00 0.00 0.00 1 1017.5
20260507020122 58 291 7.8 15.6 0.00 0.00 0.00 1 1017.6
20260507020118 58 292 7.8 15.6 0.00 0.00 0.00 1 1017.5
20260507015914 58 309 7.8 15.6 0.00 0.00 0.00 1 1017.6
20260507015814 58 289 7.8 15.6 0.00 0.00 0.00 1 1017.6
20260507015714 58 272 7.8 15.6 0.00 0.00 0.00 1 1017.6
20260507015614 58 5 8.7 19.1 0.00 0.00 0.00 1 1017.6
20260507015514 58 277 8.7 19.1 0.00 0.00 0.00 1 1017.6
20260507015414 58 296 8.7 19.1 0.00 0.00 0.00 1 1017.6
20260507015314 58 312 8.7 19.1 0.00 0.00 0.00 1 1017.5
20260507015214 57 273 8.7 19.1 0.00 0.00 0.00 1 1017.5
20260507015112 57 219 9.6 19.1 0.00 0.00 0.00 1 1017.6
20260507015012 57 279 9.6 20.0 0.00 0.00 0.00 1 1017.6
20260507014912 57 276 10.4 20.0 0.00 0.00 0.00 1 1017.5
20260507014811 57 286 10.4 20.0 0.00 0.00 0.00 1 1017.6
20260507014711 58 288 10.4 20.0 0.00 0.00 0.00 1 1017.6
20260507014612 58 290 9.6 20.0 0.00 0.00 0.00 1 1017.6
20260507014506 58 269 9.6 20.0 0.00 0.00 0.00 1 1017.5
20260507014406 58 241 9.6 20.0 0.00 0.00 0.00 1 1017.6
20260507014306 57 331 9.6 20.0 0.00 0.00 0.00 1 1017.6
20260507014205 57 323 9.6 20.0 0.00 0.00 0.00 1 1017.6
20260507014105 58 279 9.6 20.0 0.00 0.00 0.00 1 1017.6
20260507014006 58 333 9.6 16.5 0.00 0.00 0.00 1 1017.6
20260507013906 58 273 9.6 16.5 0.00 0.00 0.00 1 1017.6
20260507013806 58 261 9.6 16.5 0.00 0.00 0.00 1 1017.6
20260507013706 58 290 9.6 16.5 0.00 0.00 0.00 1 1017.6
20260507013606 58 305 9.6 16.5 0.00 0.00 0.00 1 1017.6
20260507013505 58 269 9.6 15.6 0.00 0.00 0.00 1 1017.6
20260507013404 58 275 9.6 17.4 0.00 0.00 0.00 1 1017.6
20260507013304 58 345 9.6 17.4 0.00 0.00 0.00 1 1017.5
20260507013204 58 324 9.6 17.4 0.00 0.00 0.00 1 1017.6
20260507013104 58 288 9.6 17.4 0.00 0.00 0.00 1 1017.6
20260507013003 58 287 9.6 17.4 0.00 0.00 0.00 1 1017.6
20260507012904 58 261 9.6 17.4 0.00 0.00 0.00 1 1017.6
20260507012802 58 293 8.7 17.4 0.00 0.00 0.00 1 1017.6
20260507012711 58 293 8.7 17.4 0.00 0.00 0.00 1 1017.6
20260507012706 58 282 8.7 17.4 0.00 0.00 0.00 1 1017.6
20260507012502 58 277 8.7 17.4 0.00 0.00 0.00 1 1017.6
20260507012402 58 264 8.7 14.8 0.00 0.00 0.00 1 1017.6
20260507012305 58 275 8.7 14.8 0.00 0.00 0.00 1 1017.6
20260507012202 58 254 8.7 14.8 0.00 0.00 0.00 1 1017.6
20260507012102 58 305 8.7 14.8 0.00 0.00 0.00 1 1017.6
20260507012002 58 275 8.7 14.8 0.00 0.00 0.00 1 1017.6
20260507011902 58 252 8.7 14.8 0.00 0.00 0.00 1 1017.6
20260507011802 58 277 8.7 14.8 0.00 0.00 0.00 1 1017.5
20260507011702 58 331 9.6 14.8 0.00 0.00 0.00 1 1017.6
20260507011559 58 279 9.6 14.8 0.00 0.00 0.00 1 1017.6
20260507011500 58 312 9.6 14.8 0.00 0.00 0.00 1 1017.6
20260507011400 58 280 9.6 15.6 0.00 0.00 0.00 1 1017.6
20260507011300 58 283 9.6 15.6 0.00 0.00 0.00 1 1017.7
20260507011200 58 288 9.6 15.6 0.00 0.00 0.00 1 1017.6
20260507011100 58 277 9.6 15.6 0.00 0.00 0.00 1 1017.7
20260507011000 58 273 9.6 15.6 0.00 0.00 0.00 1 1017.6
20260507010900 58 294 9.6 15.6 0.00 0.00 0.00 1 1017.7
20260507010800 58 293 9.6 15.6 0.00 0.00 0.00 1 1017.7
20260507010659 58 269 9.6 15.6 0.00 0.00 0.00 1 1017.7
20260507010600 58 279 9.6 15.6 0.00 0.00 0.00 1 1017.7
20260507010500 58 275 9.6 15.6 0.00 0.00 0.00 1 1017.7
20260507010400 58 293 8.7 15.6 0.00 0.00 0.00 1 1017.7
20260507010300 58 313 8.7 15.6 0.00 0.00 0.00 1 1017.7
20260507010200 58 286 8.7 15.6 0.00 0.00 0.00 1 1017.7
20260507010059 58 284 8.7 15.6 0.00 0.00 0.00 1 1017.7
20260507005959 58 276 8.7 15.6 0.00 0.00 0.00 1 1017.7
20260507005900 58 306 9.6 16.5 0.00 0.00 0.00 1 1017.7
20260507005800 58 277 9.6 16.5 0.00 0.00 0.00 1 1017.6
20260507005656 58 300 9.6 16.5 0.00 0.00 0.00 1 1017.6
20260507005555 59 277 9.6 16.5 0.00 0.00 0.00 1 1017.6
20260507005504 59 267 10.4 16.5 0.00 0.00 0.00 1 1017.6
20260507005500 59 321 9.6 16.5 0.00 0.00 0.00 1 1017.6
20260507005256 59 265 10.4 16.5 0.00 0.00 0.00 1 1017.6
20260507005156 59 257 10.4 16.5 0.00 0.00 0.00 1 1017.7
20260507005056 59 281 10.4 16.5 0.00 0.00 0.00 1 1017.7
20260507004956 59 293 9.6 16.5 0.00 0.00 0.00 1 1017.7
20260507004856 59 274 9.6 15.6 0.00 0.00 0.00 1 1017.7
20260507004755 59 272 9.6 15.6 0.00 0.00 0.00 1 1017.7
20260507004656 59 276 8.7 15.6 0.00 0.00 0.00 1 1017.7
20260507004601 59 246 8.7 15.6 0.00 0.00 0.00 1 1017.6
20260507004456 59 286 8.7 15.6 0.00 0.00 0.00 1 1017.7
20260507004356 59 283 8.7 15.6 0.00 0.00 0.00 1 1017.6
20260507004255 59 273 8.7 14.8 0.00 0.00 0.00 1 1017.6
20260507004204 59 309 8.7 14.8 0.00 0.00 0.00 1 1017.6
20260507004159 59 275 8.7 14.8 0.00 0.00 0.00 1 1017.6
20260507003956 59 306 8.7 14.8 0.00 0.00 0.00 1 1017.5
20260507003856 59 268 8.7 14.8 0.00 0.00 0.00 1 1017.6
20260507003751 59 267 8.7 14.8 0.00 0.00 0.00 1 1017.7
20260507003652 59 313 8.7 14.8 0.00 0.00 0.00 1 1017.7
20260507003552 59 281 9.6 14.8 0.00 0.00 0.00 1 1017.6
20260507003452 59 268 9.6 14.8 0.00 0.00 0.00 1 1017.6
20260507003352 59 273 9.6 14.8 0.00 0.00 0.00 1 1017.7
20260507003252 59 288 9.6 15.6 0.00 0.00 0.00 1 1017.6
20260507003152 59 276 9.6 15.6 0.00 0.00 0.00 1 1017.6
20260507003052 59 295 9.6 15.6 0.00 0.00 0.00 1 1017.7
20260507002951 59 266 10.4 15.6 0.00 0.00 0.00 1 1017.6
20260507002851 58 187 10.4 15.6 0.00 0.00 0.00 1 1017.6
20260507002752 58 275 10.4 15.6 0.00 0.00 0.00 1 1017.7
20260507002652 58 278 10.4 15.6 0.00 0.00 0.00 1 1017.7
20260507002552 58 290 10.4 17.4 0.00 0.00 0.00 1 1017.6
20260507002452 58 312 11.3 18.2 0.00 0.00 0.00 1 1017.6
20260507002351 58 279 11.3 18.2 0.00 0.00 0.00 1 1017.6
20260507002306 58 280 10.4 18.2 0.00 0.00 0.00 1 1017.7
20260507002155 58 323 10.4 18.2 0.00 0.00 0.00 1 1017.7
20260507001952 58 258 10.4 18.2 0.00 0.00 0.00 1 1017.7
20260507001848 59 242 9.6 18.2 0.00 0.00 0.00 1 1017.6
20260507001756 59 281 9.6 18.2 0.00 0.00 0.00 1 1017.7
20260507001752 59 305 9.6 18.2 0.00 0.00 0.00 1 1017.6
20260507001548 59 292 8.7 18.2 0.00 0.00 0.00 1 1017.8
20260507001447 59 265 8.7 15.6 0.00 0.00 0.00 1 1017.7
20260507001348 59 293 8.7 15.6 0.00 0.00 0.00 1 1017.7
20260507001248 59 279 8.7 15.6 0.00 0.00 0.00 1 1017.7
20260507001148 59 280 8.7 14.8 0.00 0.00 0.00 1 1017.7
20260507001048 59 283 8.7 14.8 0.00 0.00 0.00 1 1017.7
20260507000947 59 249 8.7 14.8 0.00 0.00 0.00 1 1017.7
20260507000847 59 294 8.7 14.8 0.00 0.00 0.00 1 1017.6
20260507000748 59 289 8.7 14.8 0.00 0.00 0.00 1 1017.7
20260507000648 59 301 8.7 14.8 0.00 0.00 0.00 1 1017.7
20260507000548 59 263 8.7 16.5 0.00 0.00 0.00 1 1017.7
20260507000449 59 280 8.7 16.5 0.00 0.00 0.00 1 1017.7
20260507000347 59 313 8.7 16.5 0.00 0.00 0.00 1 1017.7
20260507000248 59 288 8.7 16.5 0.00 0.00 0.00 1 1017.7
20260507000148 59 283 8.7 16.5 0.00 0.00 0.00 1 1017.8
20260507000048 59 288 8.7 16.5 0.00 0.00 0.00 1 1017.8
20260506235941 59 279 8.7 16.5 0.00 0.00 0.00 1 1017.8
20260506235841 59 284 8.7 16.5 0.00 0.00 0.00 1 1017.8
20260506235742 59 254 8.7 16.5 0.00 0.00 0.00 1 1017.8
20260506235642 59 279 7.8 16.5 0.00 0.00 0.00 1 1017.8
20260506235542 59 282 8.7 15.6 0.00 0.00 0.00 1 1017.8
20260506235442 59 265 8.7 15.6 0.00 0.00 0.00 1 1017.8
20260506235342 59 235 8.7 17.4 0.00 0.00 0.00 1 1017.7
20260506235241 59 278 8.7 17.4 0.00 0.00 0.00 1 1017.7
20260506235141 59 260 8.7 17.4 0.00 0.00 0.00 1 1017.8
20260506235041 59 265 8.7 17.4 0.00 0.00 0.00 1 1017.8
20260506234942 59 258 8.7 17.4 0.00 0.00 0.00 1 1017.8
20260506234842 59 251 8.7 17.4 0.00 0.00 0.00 1 1017.8
20260506234740 59 280 9.6 17.4 0.00 0.00 0.00 1 1017.7
20260506234639 59 252 9.6 17.4 0.00 0.00 0.00 1 1017.7
20260506234539 59 260 9.6 17.4 0.00 0.00 0.00 1 1017.8
20260506234440 59 275 9.6 17.4 0.00 0.00 0.00 1 1017.8
20260506234340 59 264 10.4 16.5 0.00 0.00 0.00 1 1017.8
20260506234240 59 292 10.4 16.5 0.00 0.00 0.00 1 1017.8
20260506234140 59 288 10.4 16.5 0.00 0.00 0.00 1 1017.8
20260506234037 59 325 10.4 15.6 0.00 0.00 0.00 1 1017.8
20260506233938 59 293 10.4 15.6 0.00 0.00 0.00 1 1017.8
20260506233838 59 283 10.4 15.6 0.00 0.00 0.00 1 1017.9
20260506233738 59 287 10.4 15.6 0.00 0.00 0.00 1 1017.8
20260506233638 59 247 10.4 15.6 0.00 0.00 0.00 1 1017.8
20260506233538 59 252 10.4 15.6 0.00 0.00 0.00 1 1017.9
20260506233437 59 273 10.4 15.6 0.00 0.00 0.00 1 1017.9
20260506233337 59 277 9.6 15.6 0.00 0.00 0.00 1 1017.8
20260506233238 59 264 9.6 15.6 0.00 0.00 0.00 1 1017.9
20260506233144 59 290 9.6 14.8 0.00 0.00 0.00 1 1017.8
20260506233140 59 309 9.6 15.6 0.00 0.00 0.00 1 1017.8
20260506232936 59 291 8.7 14.8 0.00 0.00 0.00 1 1017.9
20260506232836 59 284 9.6 14.8 0.00 0.00 0.00 1 1017.9
20260506232735 59 249 9.6 15.6 0.00 0.00 0.00 1 1017.9
20260506232635 59 245 9.6 15.6 0.00 0.00 0.00 1 1017.9
20260506232536 59 267 9.6 15.6 0.00 0.00 0.00 1 1017.9
20260506232434 59 275 9.6 15.6 0.00 0.00 0.00 1 1017.9
20260506232334 59 290 10.4 15.6 0.00 0.00 0.00 1 1017.9
20260506232234 59 306 10.4 15.6 0.00 0.00 0.00 1 1017.9
20260506232134 59 275 10.4 18.2 0.00 0.00 0.00 1 1017.9
20260506232033 58 267 10.4 18.2 0.00 0.00 0.00 1 1017.9
20260506231933 58 270 10.4 18.2 0.00 0.00 0.00 1 1017.9
20260506231842 58 232 10.4 18.2 0.00 0.00 0.00 1 1017.9
20260506231838 58 253 10.4 18.2 0.00 0.00 0.00 1 1018.0
20260506231633 58 266 10.4 18.2 0.00 0.00 0.00 1 1017.9
20260506231535 59 312 10.4 19.1 0.00 0.00 0.00 1 1018.0
20260506231433 59 278 9.6 19.1 0.00 0.00 0.00 1 1017.9
20260506231328 59 284 9.6 19.1 0.00 0.00 0.00 1 1017.9
20260506231227 59 289 9.6 19.1 0.00 0.00 0.00 1 1017.9
20260506231128 59 290 10.4 19.1 0.00 0.00 0.00 1 1017.9
20260506231028 59 302 10.4 19.1 0.00 0.00 0.00 1 1017.9
20260506230933 59 271 10.4 19.1 0.00 0.00 0.00 1 1018.0
20260506230821 59 277 10.4 19.1 0.00 0.00 0.00 1 1018.0
20260506230720 59 290 10.4 19.1 0.00 0.00 0.00 1 1018.0
20260506230620 59 261 10.4 19.1 0.00 0.00 0.00 1 1018.0
20260506230519 59 253 10.4 16.5 0.00 0.00 0.00 1 1018.0
20260506230419 59 275 10.4 16.5 0.00 0.00 0.00 1 1018.1
20260506230316 59 275 10.4 16.5 0.00 0.00 0.00 1 1018.1
20260506230213 59 270 10.4 17.4 0.00 0.00 0.00 1 1018.1
20260506230113 59 297 10.4 17.4 0.00 0.00 0.00 1 1018.1
20260506230014 59 284 9.6 17.4 0.00 0.00 0.00 1 1018.1
20260506225912 59 319 10.4 17.4 0.00 0.00 0.00 1 1018.1
20260506225807 59 0 10.4 17.4 0.00 0.00 0.00 1 1018.1
20260506225708 59 300 10.4 17.4 0.00 0.00 0.00 1 1018.1
20260506225608 59 305 10.4 17.4 0.00 0.00 0.00 1 1018.1
20260506225507 59 284 10.4 17.4 0.00 0.00 0.00 1 1018.1
20260506225405 59 262 10.4 17.4 0.00 0.00 0.00 1 1018.1
20260506225300 59 289 11.3 17.4 0.00 0.00 0.00 1 1018.1
20260506225159 59 275 11.3 17.4 0.00 0.00 0.00 1 1018.1
20260506225059 59 271 11.3 17.4 0.00 0.00 0.00 1 1018.1
20260506225000 59 299 11.3 17.4 0.00 0.00 0.00 1 1018.1
20260506224859 59 298 10.4 17.4 0.00 0.00 0.00 1 1018.1
20260506224753 59 225 10.4 17.4 0.00 0.00 0.00 1 1018.1
20260506224654 59 279 10.4 20.0 0.00 0.00 0.00 1 1018.1
20260506224554 59 283 10.4 20.0 0.00 0.00 0.00 1 1018.2
20260506224454 59 277 9.6 20.0 0.00 0.00 0.00 1 1018.2
20260506224352 59 273 9.6 20.0 0.00 0.00 0.00 1 1018.2
20260506224248 59 263 9.6 20.0 0.00 0.00 0.00 1 1018.2
20260506224148 60 268 8.7 20.0 0.00 0.00 0.00 1 1018.2
20260506224048 60 274 8.7 20.0 0.00 0.00 0.00 1 1018.3
20260506223947 60 306 8.7 20.0 0.00 0.00 0.00 1 1018.3
20260506223848 60 280 9.6 20.0 0.00 0.00 0.00 1 1018.3
20260506223747 60 293 9.6 20.0 0.00 0.00 0.00 1 1018.3
20260506223648 60 288 8.7 16.5 0.00 0.00 0.00 1 1018.3
20260506223548 60 263 9.6 17.4 0.00 0.00 0.00 1 1018.3
20260506223447 60 279 9.6 17.4 0.00 0.00 0.00 1 1018.4
20260506223356 60 313 9.6 17.4 0.00 0.00 0.00 1 1018.3
20260506223352 60 282 9.6 17.4 0.00 0.00 0.00 1 1018.3
20260506223147 59 321 10.4 17.4 0.00 0.00 0.00 1 1018.3
20260506223047 59 291 10.4 17.4 0.00 0.00 0.00 1 1018.4
20260506222948 59 223 10.4 17.4 0.00 0.00 0.00 1 1018.3
20260506222848 59 291 10.4 17.4 0.00 0.00 0.00 1 1018.3
20260506222746 59 280 10.4 17.4 0.00 0.00 0.00 1 1018.4
20260506222646 59 256 10.4 17.4 0.00 0.00 0.00 1 1018.4
20260506222546 60 285 10.4 16.5 0.00 0.00 0.00 1 1018.4
20260506222445 59 245 10.4 16.5 0.00 0.00 0.00 1 1018.4
20260506222345 60 278 10.4 16.5 0.00 0.00 0.00 1 1018.4
20260506222245 60 282 10.4 15.6 0.00 0.00 0.00 1 1018.4
20260506222145 60 277 10.4 15.6 0.00 0.00 0.00 1 1018.4
20260506222038 60 260 10.4 17.4 0.00 0.00 0.00 1 1018.4
20260506221937 60 314 10.4 17.4 0.00 0.00 0.00 1 1018.5
20260506221837 60 283 10.4 17.4 0.00 0.00 0.00 1 1018.5
20260506221738 60 277 10.4 17.4 0.00 0.00 0.00 1 1018.5
20260506221637 60 263 9.6 17.4 0.00 0.00 0.00 1 1018.5
20260506221531 60 300 10.4 17.4 0.00 0.00 0.00 1 1018.5
20260506221440 60 295 9.6 17.4 0.00 0.00 0.00 1 1018.5
20260506221435 60 292 9.6 17.4 0.00 0.00 0.00 1 1018.5
20260506221231 60 278 9.6 17.4 0.00 0.00 0.00 1 1018.6
20260506221131 60 261 9.6 17.4 0.00 0.00 0.00 1 1018.6
20260506221025 60 280 9.6 17.4 0.00 0.00 0.00 1 1018.6
20260506220926 60 269 9.6 17.4 0.00 0.00 0.00 1 1018.6
20260506220826 60 274 9.6 17.4 0.00 0.00 0.00 1 1018.7
20260506220725 60 307 9.6 17.4 0.00 0.00 0.00 1 1018.7
20260506220624 60 252 9.6 17.4 0.00 0.00 0.00 1 1018.7
20260506220520 60 280 9.6 17.4 0.00 0.00 0.00 1 1018.7
20260506220420 60 286 8.7 17.4 0.00 0.00 0.00 1 1018.6
20260506220319 60 251 8.7 17.4 0.00 0.00 0.00 1 1018.7
20260506220219 60 333 8.7 17.4 0.00 0.00 0.00 1 1018.7
20260506220119 60 273 8.7 17.4 0.00 0.00 0.00 1 1018.7
20260506220014 60 270 9.6 15.6 0.00 0.00 0.00 1 1018.7
20260506215914 60 287 9.6 15.6 0.00 0.00 0.00 1 1018.7
20260506215813 60 282 9.6 15.6 0.00 0.00 0.00 1 1018.7
20260506215713 60 274 9.6 15.6 0.00 0.00 0.00 1 1018.6
20260506215613 60 294 9.6 15.6 0.00 0.00 0.00 1 1018.7
20260506215516 60 257 10.4 14.8 0.00 0.00 0.00 1 1018.8
20260506215512 60 275 10.4 14.8 0.00 0.00 0.00 1 1018.8
20260506215307 60 282 10.4 14.8 0.00 0.00 0.00 1 1018.8
20260506215207 60 259 10.4 14.8 0.00 0.00 0.00 1 1018.8
20260506215107 60 254 10.4 14.8 0.00 0.00 0.00 1 1018.8
20260506215001 60 0 9.6 14.8 0.00 0.00 0.00 1 1018.8
20260506214910 60 281 9.6 14.8 0.00 0.00 0.00 1 1018.8
20260506214906 60 281 9.6 14.8 0.00 0.00 0.00 1 1018.8
20260506214701 60 282 9.6 14.8 0.00 0.00 0.00 1 1018.8
20260506214601 60 271 9.6 14.8 0.00 0.00 0.00 1 1018.8
20260506214455 60 259 9.6 16.5 0.00 0.00 0.00 1 1018.8
20260506214355 60 299 8.7 16.5 0.00 0.00 0.00 1 1018.8
20260506214255 60 263 9.6 18.2 0.00 0.00 0.00 1 1018.8
20260506214204 60 250 9.6 18.2 0.00 0.00 0.00 1 1018.9
20260506214159 60 227 9.6 18.2 0.00 0.00 0.00 1 1018.8
20260506213950 60 292 9.6 18.2 0.00 0.00 0.00 1 1018.9
20260506213849 60 302 9.6 18.2 0.00 0.00 0.00 1 1018.9
20260506213749 60 271 9.6 18.2 0.00 0.00 0.00 1 1018.9
20260506213649 60 280 9.6 18.2 0.00 0.00 0.00 1 1018.9
20260506213549 60 259 9.6 18.2 0.00 0.00 0.00 1 1019.0
20260506213443 60 0 8.7 18.2 0.00 0.00 0.00 1 1018.9
20260506213343 60 255 8.7 18.2 0.00 0.00 0.00 1 1018.9
20260506213243 60 292 8.7 13.0 0.00 0.00 0.00 1 1018.8
20260506213144 60 274 8.7 13.0 0.00 0.00 0.00 1 1018.9
20260506213042 60 279 8.7 13.9 0.00 0.00 0.00 1 1018.9
20260506212938 60 278 8.7 13.9 0.00 0.00 0.00 1 1018.8
20260506212838 60 242 8.7 13.9 0.00 0.00 0.00 1 1018.9
20260506212738 60 287 8.7 13.9 0.00 0.00 0.00 1 1018.9
20260506212638 60 264 8.7 13.9 0.00 0.00 0.00 1 1019.0
20260506212540 60 317 8.7 14.8 0.00 0.00 0.00 1 1018.9
20260506212536 60 276 9.6 14.8 0.00 0.00 0.00 1 1019.0
20260506212332 60 273 8.7 14.8 0.00 0.00 0.00 1 1019.0
20260506212231 60 292 8.7 14.8 0.00 0.00 0.00 1 1018.9
20260506212131 60 257 8.7 14.8 0.00 0.00 0.00 1 1018.9
20260506212031 60 284 8.7 14.8 0.00 0.00 0.00 1 1019.0
20260506211926 60 286 8.7 14.8 0.00 0.00 0.00 1 1018.9
20260506211825 60 302 8.7 14.8 0.00 0.00 0.00 1 1018.9
20260506211725 60 271 9.6 15.6 0.00 0.00 0.00 1 1018.9
20260506211625 60 259 9.6 15.6 0.00 0.00 0.00 1 1018.8
20260506211525 60 297 9.6 15.6 0.00 0.00 0.00 1 1018.8
20260506211420 60 278 9.6 15.6 0.00 0.00 0.00 1 1018.9
20260506211319 60 273 9.6 15.6 0.00 0.00 0.00 1 1018.8
20260506211228 60 257 9.6 15.6 0.00 0.00 0.00 1 1018.9
20260506211224 60 256 9.6 15.6 0.00 0.00 0.00 1 1019.0
20260506211019 60 220 8.7 15.6 0.00 0.00 0.00 1 1018.8
20260506210921 60 265 9.6 15.6 0.00 0.00 0.00 1 1018.8
20260506210917 60 251 8.7 15.6 0.00 0.00 0.00 1 1018.9
20260506210714 60 323 8.7 15.6 0.00 0.00 0.00 1 1018.9
20260506210614 60 289 8.7 15.6 0.00 0.00 0.00 1 1018.9
20260506210513 60 252 8.7 15.6 0.00 0.00 0.00 1 1018.9
20260506210408 60 288 8.7 15.6 0.00 0.00 0.00 1 1018.8
20260506210308 60 285 8.7 15.6 0.00 0.00 0.00 1 1018.9
20260506210208 60 269 9.6 15.6 0.00 0.00 0.00 1 1019.0
20260506210107 60 319 9.6 15.6 0.00 0.00 0.00 1 1018.9
20260506210010 60 238 9.6 15.6 0.00 0.00 0.00 1 1018.9
20260506210005 60 312 9.6 15.6 0.00 0.00 0.00 1 1018.9
20260506205814 60 237 9.6 15.6 0.00 0.00 0.00 1 1018.9
20260506205705 60 295 9.6 15.6 0.00 0.00 0.00 1 1018.9
20260506205501 60 300 8.7 15.6 0.00 0.00 0.00 1 1018.9
20260506205355 60 286 8.7 15.6 0.00 0.00 0.00 1 1018.8
20260506205255 60 242 8.7 13.0 0.00 0.00 0.00 1 1018.9
20260506205208 60 279 8.7 13.0 0.00 0.00 0.00 1 1018.9
20260506205059 60 279 8.7 13.0 0.00 0.00 0.00 1 1019.0
20260506204849 60 272 8.7 13.9 0.00 0.00 0.00 1 1018.9
20260506204749 61 256 8.7 13.9 0.00 0.00 0.00 1 1019.0
20260506204649 61 286 8.7 13.9 0.00 0.00 0.00 1 1019.0
20260506204549 61 273 8.7 13.9 0.00 0.00 0.00 1 1019.0
20260506204449 61 257 8.7 13.9 0.00 0.00 0.00 1 1019.0
20260506204343 60 274 8.7 13.9 0.00 0.00 0.00 1 1018.9
20260506204243 61 0 8.7 13.9 0.00 0.00 0.00 1 1019.0
20260506204143 61 258 8.7 13.9 0.00 0.00 0.00 1 1019.0
20260506204044 61 270 8.7 13.9 0.00 0.00 0.00 1 1019.0
20260506203942 61 285 7.8 13.9 0.00 0.00 0.00 1 1019.0
20260506203837 61 287 7.8 13.9 0.00 0.00 0.00 1 1019.0
20260506203738 61 267 8.7 13.0 0.00 0.00 0.00 1 1019.0
20260506203646 60 272 7.8 13.0 0.00 0.00 0.00 1 1019.0
20260506203642 61 292 8.7 13.0 0.00 0.00 0.00 1 1019.0
20260506203440 60 244 8.7 13.0 0.00 0.00 0.00 1 1019.1
20260506203435 60 232 8.7 13.0 0.00 0.00 0.00 1 1019.1
20260506203231 60 318 8.7 13.0 0.00 0.00 0.00 1 1019.1
20260506203131 60 268 7.8 13.0 0.00 0.00 0.00 1 1019.1
20260506203032 60 241 7.8 13.0 0.00 0.00 0.00 1 1019.1
20260506202930 60 282 7.8 13.0 0.00 0.00 0.00 1 1019.1
20260506202825 60 290 7.8 13.0 0.00 0.00 0.00 1 1019.1
20260506202746 61 283 7.8 13.0 0.00 0.00 0.00 1 1019.1
20260506202742 61 261 7.8 13.0 0.00 0.00 0.00 1 1019.1
20260506202634 61 246 7.8 13.0 0.00 0.00 0.00 1 1019.1
20260506202319 61 271 7.8 12.2 0.00 0.00 0.00 1 1019.1
20260506202219 61 298 7.8 13.0 0.00 0.00 0.00 1 1019.1
20260506202119 61 309 7.8 13.0 0.00 0.00 0.00 1 1019.1
20260506202019 61 271 7.8 13.0 0.00 0.00 0.00 1 1019.1
20260506201919 61 262 7.8 13.9 0.00 0.00 0.00 1 1019.1
20260506201813 60 259 7.8 13.9 0.00 0.00 0.00 1 1019.1
20260506201713 60 298 7.8 13.9 0.00 0.00 0.00 1 1019.2
20260506201622 60 355 7.8 13.9 0.00 0.00 0.00 1 1019.2
20260506201618 60 280 7.8 13.9 0.00 0.00 0.00 1 1019.2
20260506201413 60 255 7.8 13.9 0.00 0.00 0.00 1 1019.2
20260506201307 60 261 7.0 13.9 0.00 0.00 0.00 1 1019.3
20260506201207 60 281 7.0 13.9 0.00 0.00 0.00 1 1019.3
20260506201119 60 265 7.0 13.9 0.00 0.00 0.00 1 1019.3
20260506201011 60 0 7.0 13.9 0.00 0.00 0.00 1 1019.2
20260506200820 60 283 7.0 12.2 0.00 0.00 0.00 1 1019.3
20260506200816 60 250 7.0 11.3 0.00 0.00 0.00 1 1019.3
20260506200812 60 269 7.0 12.2 0.00 0.00 0.00 1 1019.3
20260506200503 60 267 7.0 11.3 0.00 0.00 0.00 1 1019.3
20260506200401 60 289 7.0 11.3 0.00 0.00 0.00 1 1019.3
20260506200255 60 296 7.0 11.3 0.00 0.00 0.00 1 1019.3
20260506200155 60 271 7.0 11.3 0.00 0.00 0.00 1 1019.3
20260506200055 60 232 6.1 11.3 0.00 0.00 0.00 1 1019.3
20260506195954 60 257 6.1 11.3 0.00 0.00 0.00 1 1019.2
20260506195855 61 272 6.1 11.3 0.00 0.00 0.00 1 1019.3
20260506195749 61 312 6.1 11.3 0.00 0.00 0.00 1 1019.3
20260506195657 61 294 5.2 11.3 0.00 0.00 0.00 1 1019.3
20260506195653 61 282 6.1 11.3 0.00 0.00 0.00 1 1019.3
20260506195449 61 298 5.2 11.3 0.00 0.00 0.00 1 1019.3
20260506195349 61 287 5.2 11.3 0.00 0.00 0.00 1 1019.3
20260506195243 61 251 5.2 11.3 0.00 0.00 0.00 1 1019.3
20260506195143 61 292 5.2 11.3 0.00 0.00 0.00 1 1019.4
20260506195043 61 277 6.1 11.3 0.00 0.00 0.00 1 1019.3
20260506194943 61 277 5.2 10.4 0.00 0.00 0.00 1 1019.4
20260506194843 61 294 5.2 10.4 0.00 0.00 0.00 1 1019.4
20260506194746 61 222 6.1 10.4 0.00 0.00 0.00 1 1019.4
20260506194741 61 292 5.2 10.4 0.00 0.00 0.00 1 1019.3
20260506194537 61 276 6.1 10.4 0.00 0.00 0.00 1 1019.4
20260506194437 61 269 6.1 10.4 0.00 0.00 0.00 1 1019.4
20260506194337 61 259 6.1 10.4 0.00 0.00 0.00 1 1019.3
20260506194231 61 240 7.0 10.4 0.00 0.00 0.00 1 1019.4
20260506194131 61 291 7.0 12.2 0.00 0.00 0.00 1 1019.4
20260506194031 61 292 6.1 12.2 0.00 0.00 0.00 1 1019.4
20260506193931 61 263 7.0 12.2 0.00 0.00 0.00 1 1019.4
20260506193831 60 257 7.0 12.2 0.00 0.00 0.00 1 1019.4
20260506193733 60 310 7.0 12.2 0.00 0.00 0.00 1 1019.4
20260506193729 60 277 6.1 12.2 0.00 0.00 0.00 1 1019.4
20260506193525 60 311 6.1 12.2 0.00 0.00 0.00 1 1019.4
20260506193426 60 229 6.1 12.2 0.00 0.00 0.00 1 1019.5
20260506193325 60 254 6.1 12.2 0.00 0.00 0.00 1 1019.4
20260506193219 60 198 6.1 12.2 0.00 0.00 0.00 1 1019.4
20260506193119 61 281 6.1 10.4 0.00 0.00 0.00 1 1019.4
20260506193019 60 241 6.1 10.4 0.00 0.00 0.00 1 1019.4
20260506192919 60 238 6.1 10.4 0.00 0.00 0.00 2 1019.5
20260506192819 60 257 6.1 10.4 0.00 0.00 0.00 1 1019.4
20260506192714 61 290 6.1 10.4 0.00 0.01 0.00 1 1019.5
20260506192613 61 268 6.1 11.3 0.00 0.01 0.00 1 1019.5
20260506192513 61 227 6.1 11.3 0.00 0.01 0.00 1 1019.5
20260506192413 60 282 6.1 11.3 0.00 0.01 0.00 1 1019.5
20260506192313 60 285 6.1 11.3 0.00 0.01 0.00 5 1019.5
20260506192216 61 263 5.2 11.3 0.00 0.01 0.00 2 1019.5
20260506192211 61 291 6.1 11.3 0.00 0.01 0.00 7 1019.5
20260506192007 61 275 5.2 11.3 0.00 0.01 0.00 2 1019.5
20260506191907 61 316 5.2 11.3 0.00 0.01 0.00 3 1019.5
20260506191808 61 275 5.2 11.3 0.00 0.01 0.00 3 1019.5
20260506191701 61 236 4.3 11.3 0.00 0.01 0.00 1 1019.5
20260506191601 61 229 4.3 9.6 0.00 0.01 0.00 1 1019.5
20260506191501 61 266 5.2 9.6 0.00 0.01 0.00 1 1019.5
20260506191401 61 253 5.2 9.6 0.00 0.01 0.00 1 1019.5
20260506191259 61 269 5.2 9.6 0.00 0.01 0.00 1 1019.5
20260506191055 61 258 5.2 9.6 0.00 0.01 0.00 1 1019.5
20260506190951 60 239 5.2 10.4 0.00 0.01 0.00 1 1019.5
20260506190850 60 269 5.2 10.4 0.00 0.01 0.00 1 1019.6
20260506190750 60 277 5.2 10.4 0.00 0.01 0.00 1 1019.6
20260506190649 60 273 5.2 10.4 0.00 0.01 0.00 1 1019.6
20260506190549 60 252 6.1 10.4 0.00 0.01 0.00 1 1019.6
20260506190449 60 271 6.1 10.4 0.00 0.01 0.00 1 1019.6
20260506190349 60 245 6.1 10.4 0.00 0.01 0.00 1 1019.6
20260506190249 60 284 6.1 10.4 0.00 0.01 0.00 1 1019.6
20260506190157 60 274 6.1 10.4 0.00 0.01 0.00 1 1019.6
20260506190153 60 279 6.1 10.4 0.00 0.01 0.00 1 1019.7
20260506185949 60 318 6.1 10.4 0.00 0.01 0.00 1 1019.6
20260506185850 60 268 6.1 10.4 0.00 0.01 0.00 3 1019.6
20260506185749 60 262 6.1 10.4 0.00 0.01 0.00 6 1019.6
20260506185649 60 279 6.1 10.4 0.00 0.01 0.00 7 1019.6
20260506185549 60 272 5.2 10.4 0.00 0.01 0.00 4 1019.6
20260506185449 60 238 5.2 9.6 0.00 0.01 0.00 4 1019.6
20260506185349 60 232 5.2 9.6 0.00 0.01 0.00 3 1019.6
20260506185246 60 239 5.2 8.7 0.00 0.01 0.00 1 1019.6
20260506185148 60 231 4.3 7.8 0.00 0.01 0.00 1 1019.6
20260506185046 60 286 5.2 8.7 0.00 0.01 0.00 1 1019.6
20260506184941 60 261 5.2 8.7 0.00 0.01 0.00 1 1019.6
20260506184841 60 275 5.2 8.7 0.00 0.01 0.00 1 1019.6
20260506184741 60 278 5.2 8.7 0.00 0.01 0.00 1 1019.6
20260506184641 60 248 5.2 8.7 0.00 0.01 0.00 1 1019.6
20260506184541 60 238 5.2 8.7 0.00 0.01 0.00 1 1019.5
20260506184437 60 245 5.2 9.6 0.00 0.01 0.00 1 1019.6
20260506184337 60 240 5.2 10.4 0.00 0.01 0.00 1 1019.6
20260506184246 60 258 5.2 10.4 0.00 0.01 0.00 1 1019.6
20260506184241 60 256 5.2 10.4 0.00 0.01 0.00 1 1019.6
20260506184037 60 245 5.2 10.4 0.00 0.01 0.00 1 1019.6
20260506183937 60 277 5.2 10.4 0.00 0.01 0.00 1 1019.6
20260506183837 60 261 5.2 10.4 0.00 0.01 0.00 1 1019.6
20260506183736 60 250 5.2 10.4 0.00 0.01 0.00 1 1019.6
20260506183637 60 274 5.2 10.4 0.00 0.01 0.00 1 1019.6
20260506183537 60 232 5.2 10.4 0.00 0.01 0.00 1 1019.6
20260506183437 60 210 4.3 10.4 0.00 0.01 0.00 1 1019.5
20260506183337 60 229 4.3 8.7 0.00 0.01 0.00 1 1019.6
20260506183237 60 234 4.3 7.8 0.00 0.01 0.00 1 1019.6
20260506183137 60 219 4.3 7.8 0.00 0.01 0.00 1 1019.6
20260506183037 60 241 4.3 7.8 0.00 0.01 0.00 1 1019.6
20260506182937 60 215 4.3 7.8 0.00 0.01 0.00 1 1019.6
20260506182837 60 252 4.3 7.8 0.00 0.01 0.00 1 1019.6
20260506182732 60 246 4.3 7.8 0.00 0.01 0.00 1 1019.6
20260506182632 60 278 4.3 7.8 0.00 0.01 0.00 1 1019.6
20260506182533 60 271 4.3 7.8 0.00 0.01 0.00 1 1019.6
20260506182433 60 327 4.3 7.8 0.00 0.01 0.00 1 1019.6
20260506182333 60 284 4.3 7.8 0.00 0.01 0.00 1 1019.6
20260506182233 60 288 4.3 7.8 0.00 0.01 0.00 1 1019.6
20260506182132 60 293 4.3 7.8 0.00 0.01 0.00 1 1019.7
20260506182033 60 257 5.2 7.8 0.00 0.01 0.00 1 1019.7
20260506181933 60 226 5.2 7.8 0.00 0.01 0.00 1 1019.6
20260506181833 60 238 5.2 8.7 0.00 0.01 0.00 1 1019.6
20260506181733 60 275 5.2 8.7 0.00 0.01 0.00 1 1019.6
20260506181634 60 277 5.2 8.7 0.00 0.01 0.00 1 1019.6
20260506181541 59 257 5.2 8.7 0.00 0.01 0.00 1 1019.6
20260506181537 60 271 5.2 8.7 0.00 0.01 0.00 1 1019.6
20260506181332 59 227 5.2 8.7 0.00 0.01 0.00 1 1019.6
20260506181232 59 243 5.2 8.7 0.00 0.01 0.00 1 1019.6
20260506181132 59 253 5.2 8.7 0.00 0.01 0.00 1 1019.6
20260506181032 59 246 5.2 8.7 0.00 0.01 0.00 1 1019.6
20260506180933 59 257 5.2 8.7 0.00 0.01 0.00 1 1019.6
20260506180833 59 255 5.2 8.7 0.00 0.01 0.00 1 1019.6
20260506180733 59 284 5.2 9.6 0.00 0.01 0.00 1 1019.6
20260506180632 59 254 5.2 9.6 0.00 0.01 0.00 1 1019.6
20260506180533 59 269 5.2 9.6 0.00 0.01 0.00 1 1019.6
20260506180433 59 288 5.2 9.6 0.00 0.01 0.00 1 1019.6
20260506180327 59 203 5.2 9.6 0.00 0.01 0.00 1 1019.6
20260506180226 59 236 4.3 9.6 0.00 0.01 0.00 1 1019.5
20260506180127 59 267 4.3 9.6 0.00 0.01 0.00 1 1019.6
20260506180027 59 236 4.3 9.6 0.00 0.01 0.00 1 1019.5
20260506175927 59 254 4.3 9.6 0.00 0.01 0.00 1 1019.5
20260506175827 59 243 4.3 8.7 0.00 0.01 0.00 1 1019.5
20260506175727 59 269 3.5 7.8 0.00 0.01 0.00 1 1019.5
20260506175626 59 279 4.3 7.8 0.00 0.01 0.00 1 1019.5
20260506175527 60 315 4.3 7.8 0.00 0.01 0.00 1 1019.5
20260506175427 60 276 4.3 7.8 0.00 0.01 0.00 1 1019.5
20260506175327 60 281 3.5 7.8 0.00 0.01 0.00 1 1019.4
20260506175227 60 215 4.3 7.8 0.00 0.01 0.00 1 1019.5
20260506175123 60 225 4.3 8.7 0.00 0.01 0.00 1 1019.5
20260506175023 60 300 4.3 8.7 0.00 0.01 0.00 1 1019.5
20260506174923 60 259 4.3 8.7 0.00 0.01 0.00 1 1019.5
20260506174823 60 273 4.3 8.7 0.00 0.01 0.00 1 1019.5
20260506174723 60 300 4.3 8.7 0.00 0.01 0.00 1 1019.6
20260506174623 60 250 4.3 8.7 0.00 0.01 0.00 1 1019.6
20260506174522 59 220 4.3 8.7 0.00 0.01 0.00 1 1019.5
20260506174423 59 219 4.3 8.7 0.00 0.01 0.00 1 1019.6
20260506174321 59 243 4.3 8.7 0.00 0.01 0.00 1 1019.5
20260506174221 59 290 4.3 8.7 0.00 0.01 0.00 1 1019.5
20260506174121 59 0 4.3 8.7 0.00 0.01 0.00 1 1019.5
20260506174021 59 325 4.3 7.8 0.00 0.01 0.00 1 1019.5
20260506173917 59 278 4.3 7.8 0.00 0.01 0.00 1 1019.5
20260506173817 59 281 4.3 7.8 0.00 0.01 0.00 1 1019.5
20260506173717 59 276 4.3 7.8 0.00 0.01 0.00 1 1019.5
20260506173617 59 260 4.3 7.8 0.00 0.01 0.00 1 1019.5
20260506173517 59 217 4.3 7.8 0.00 0.01 0.00 1 1019.5
20260506173417 59 237 4.3 7.8 0.00 0.01 0.00 1 1019.5
20260506173317 59 248 5.2 10.4 0.00 0.01 0.00 1 1019.5
20260506173217 59 281 5.2 10.4 0.00 0.01 0.00 1 1019.4
20260506173117 59 281 5.2 10.4 0.00 0.01 0.00 1 1019.5
20260506173017 59 292 5.2 10.4 0.00 0.01 0.00 1 1019.5
20260506172917 59 270 5.2 10.4 0.00 0.01 0.00 1 1019.5
20260506172816 59 263 5.2 10.4 0.00 0.01 0.00 1 1019.5
20260506172716 59 282 5.2 10.4 0.00 0.01 0.00 1 1019.5
20260506172617 59 0 5.2 10.4 0.00 0.01 0.00 1 1019.5
20260506172517 59 263 5.2 10.4 0.00 0.01 0.00 1 1019.6
20260506172417 59 275 5.2 10.4 0.00 0.01 0.00 1 1019.5
20260506172317 59 212 4.3 8.7 0.00 0.01 0.00 1 1019.5
20260506172217 59 230 4.3 8.7 0.00 0.01 0.00 1 1019.5
20260506172116 59 213 4.3 8.7 0.00 0.01 0.00 1 1019.5
20260506172013 59 265 4.3 8.7 0.00 0.01 0.00 1 1019.5
20260506171913 59 276 4.3 8.7 0.00 0.01 0.00 1 1019.5
20260506171812 59 224 4.3 8.7 0.00 0.01 0.00 1 1019.6
20260506171712 59 290 4.3 8.7 0.00 0.01 0.00 1 1019.5
20260506171612 59 263 4.3 8.7 0.00 0.01 0.00 1 1019.5
20260506171513 59 273 4.3 8.7 0.00 0.01 0.00 1 1019.5
20260506171413 59 281 4.3 8.7 0.00 0.01 0.00 1 1019.5
20260506171313 59 248 4.3 8.7 0.00 0.01 0.00 1 1019.5
20260506171212 59 293 4.3 7.8 0.00 0.01 0.00 1 1019.5
20260506171112 58 257 4.3 7.8 0.00 0.01 0.00 1 1019.5
20260506171012 58 286 4.3 7.8 0.00 0.01 0.00 1 1019.5
20260506170913 58 273 4.3 7.8 0.00 0.01 0.00 1 1019.6
20260506170813 58 258 4.3 7.8 0.00 0.01 0.00 1 1019.6
20260506170713 58 228 4.3 7.0 0.00 0.01 0.00 1 1019.6
20260506170612 58 245 4.3 7.8 0.00 0.01 0.00 1 1019.6
20260506170512 58 271 3.5 7.8 0.00 0.01 0.00 1 1019.6
20260506170413 58 240 3.5 7.8 0.00 0.01 0.00 1 1019.6
20260506170313 58 232 3.5 7.8 0.00 0.01 0.00 1 1019.6
20260506170213 58 244 3.5 7.8 0.00 0.01 0.00 1 1019.6
20260506170117 58 267 3.5 7.8 0.00 0.01 0.00 1 1019.6
20260506170113 58 290 3.5 7.8 0.00 0.01 0.00 1 1019.6
20260506165917 58 263 3.5 7.8 0.00 0.01 0.00 1 1019.6
20260506165913 58 284 3.5 7.8 0.00 0.01 0.00 1 1019.6
20260506165709 58 342 3.5 7.8 0.00 0.01 0.00 1 1019.5
20260506165609 58 270 3.5 7.8 0.00 0.01 0.00 1 1019.5
20260506165508 58 263 3.5 7.8 0.00 0.01 0.00 1 1019.5
20260506165408 58 256 3.5 7.8 0.00 0.01 0.00 1 1019.5
20260506165317 58 253 4.3 7.8 0.00 0.01 0.00 1 1019.6
20260506165313 58 279 3.5 7.8 0.00 0.01 0.00 1 1019.5
20260506165108 58 270 4.3 7.8 0.00 0.01 0.00 1 1019.6
20260506165008 58 267 4.3 7.8 0.00 0.01 0.00 1 1019.6
20260506164909 58 237 4.3 7.8 0.00 0.01 0.00 1 1019.6
20260506164809 58 246 4.3 7.8 0.00 0.01 0.00 1 1019.5
20260506164709 58 279 4.3 7.8 0.00 0.01 0.00 1 1019.6
20260506164608 58 272 4.3 7.8 0.00 0.01 0.00 1 1019.6
20260506164508 58 272 4.3 7.8 0.00 0.01 0.00 1 1019.5
20260506164408 58 279 4.3 7.8 0.00 0.01 0.00 1 1019.5
20260506164309 58 263 4.3 7.8 0.00 0.01 0.00 1 1019.5
20260506164209 58 290 4.3 7.0 0.00 0.01 0.00 1 1019.6
20260506164117 58 275 4.3 7.0 0.00 0.01 0.00 1 1019.5
20260506164113 58 279 4.3 7.0 0.00 0.01 0.00 1 1019.5
20260506163907 58 269 4.3 7.0 0.00 0.01 0.00 1 1019.5
20260506163806 58 263 3.5 7.0 0.00 0.01 0.00 1 1019.5
20260506163706 58 258 3.5 7.0 0.00 0.01 0.00 1 1019.5
20260506163606 58 228 3.5 7.0 0.00 0.01 0.00 1 1019.5
20260506163506 58 276 3.5 7.0 0.00 0.01 0.00 1 1019.5
20260506163407 58 278 3.5 7.0 0.00 0.01 0.00 1 1019.5
20260506163307 58 251 3.5 7.0 0.00 0.01 0.00 1 1019.5
20260506163207 58 250 3.5 7.0 0.00 0.01 0.00 1 1019.5
20260506163107 58 243 2.6 7.0 0.00 0.01 0.00 1 1019.5
20260506163103 58 234 2.6 7.0 0.00 0.01 0.00 1 1019.5
20260506162859 58 225 2.6 7.0 0.00 0.01 0.00 1 1019.5
20260506162759 58 249 2.6 6.1 0.00 0.01 0.00 1 1019.5
20260506162658 58 282 2.6 6.1 0.00 0.01 0.00 1 1019.5
20260506162558 58 254 2.6 6.1 0.00 0.01 0.00 1 1019.5
20260506162455 58 279 2.6 6.1 0.00 0.01 0.00 1 1019.4
20260506162355 58 269 2.6 6.1 0.00 0.01 0.00 1 1019.5
20260506162255 58 224 1.7 6.1 0.00 0.01 0.00 1 1019.5
20260506162153 57 268 1.7 6.1 0.00 0.01 0.00 1 1019.5
20260506162050 57 268 2.6 6.1 0.00 0.01 0.00 1 1019.5
20260506161947 57 266 2.6 6.1 0.00 0.01 0.00 1 1019.5
20260506161846 57 277 2.6 7.0 0.00 0.01 0.00 1 1019.5
20260506161747 57 283 2.6 7.0 0.00 0.01 0.00 1 1019.5
20260506161646 57 319 2.6 7.0 0.00 0.01 0.00 1 1019.5
20260506161544 57 279 2.6 7.0 0.00 0.01 0.00 1 1019.6
20260506161440 57 263 2.6 7.0 0.00 0.01 0.00 1 1019.6
20260506161340 57 277 3.5 7.0 0.00 0.01 0.00 1 1019.6
20260506161241 57 277 3.5 7.0 0.00 0.01 0.00 1 1019.6
20260506161140 57 303 3.5 7.0 0.00 0.01 0.00 1 1019.5
20260506161038 57 257 3.5 7.0 0.00 0.01 0.00 1 1019.5
20260506160933 57 244 3.5 7.0 0.00 0.01 0.00 1 1019.5
20260506160833 57 225 3.5 7.0 0.00 0.01 0.00 1 1019.5
20260506160733 57 254 3.5 7.0 0.00 0.01 0.00 1 1019.5
20260506160632 57 279 3.5 7.0 0.00 0.01 0.00 1 1019.5
20260506160532 57 262 3.5 7.0 0.00 0.01 0.00 1 1019.5
20260506160425 57 257 3.5 7.0 0.00 0.01 0.00 1 1019.5
20260506160324 57 257 2.6 7.0 0.00 0.01 0.00 1 1019.4
20260506160224 57 269 2.6 7.0 0.00 0.01 0.00 1 1019.4
20260506160125 57 290 3.5 7.0 0.00 0.01 0.00 1 1019.4
20260506160024 57 264 2.6 6.1 0.00 0.01 0.00 1 1019.5
20260506155923 57 236 2.6 6.1 0.00 0.01 0.00 1 1019.5
20260506155822 57 231 2.6 6.1 0.00 0.01 0.00 1 1019.5
20260506155723 57 223 2.6 6.1 0.00 0.01 0.00 1 1019.5
20260506155621 57 261 2.6 6.1 0.00 0.01 0.00 1 1019.5
20260506155516 57 264 2.6 6.1 0.00 0.01 0.00 1 1019.4
20260506155411 57 254 2.6 5.2 0.00 0.01 0.00 1 1019.5
20260506155311 57 280 2.6 5.2 0.00 0.01 0.00 1 1019.5
20260506155211 57 288 2.6 5.2 0.00 0.01 0.00 1 1019.5
20260506155110 57 277 2.6 5.2 0.00 0.01 0.00 1 1019.5
20260506155010 57 241 2.6 5.2 0.00 0.01 0.00 1 1019.5
20260506154909 57 239 2.6 5.2 0.00 0.01 0.00 1 1019.4
20260506154808 57 255 2.6 5.2 0.00 0.01 0.00 1 1019.4
20260506154706 57 244 1.7 5.2 0.00 0.01 0.00 1 1019.5
20260506154606 57 273 1.7 5.2 0.00 0.01 0.00 1 1019.5
20260506154504 57 271 1.7 5.2 0.00 0.01 0.00 1 1019.5
20260506154358 57 287 1.7 5.2 0.00 0.01 0.00 1 1019.5
20260506154258 57 281 1.7 6.1 0.00 0.01 0.00 1 1019.5
20260506154211 57 281 1.7 6.1 0.00 0.01 0.00 1 1019.5
20260506154102 57 296 1.7 6.1 0.00 0.01 0.00 1 1019.5
20260506153854 57 295 1.7 6.1 0.00 0.01 0.00 1 1019.5
20260506153754 57 279 1.7 6.1 0.00 0.01 0.00 1 1019.5
20260506153654 57 278 1.7 6.1 0.00 0.01 0.00 1 1019.5
20260506153555 57 284 1.7 6.1 0.00 0.01 0.00 1 1019.4
20260506153452 57 283 2.6 6.1 0.00 0.01 0.00 1 1019.4
20260506153346 57 283 1.7 6.1 0.00 0.01 0.00 1 1019.4
20260506153247 57 278 1.7 5.2 0.00 0.01 0.00 1 1019.4
20260506153147 57 300 1.7 5.2 0.00 0.01 0.00 1 1019.4
20260506153054 57 300 1.7 5.2 0.00 0.01 0.00 1 1019.4
20260506153050 57 275 1.7 5.2 0.00 0.01 0.00 1 1019.4
20260506152842 57 271 1.7 5.2 0.00 0.01 0.00 1 1019.4
20260506152748 57 277 1.7 5.2 0.00 0.01 0.00 1 1019.4
20260506152744 57 290 1.7 5.2 0.00 0.01 0.00 1 1019.4
20260506152541 57 257 1.7 5.2 0.00 0.01 0.00 1 1019.4
20260506152440 57 273 1.7 5.2 0.00 0.01 0.00 1 1019.4
20260506152341 57 273 2.6 5.2 0.00 0.01 0.00 1 1019.4
20260506152239 57 273 2.6 5.2 0.00 0.01 0.00 1 1019.4
20260506152139 57 273 2.6 5.2 0.00 0.01 0.00 1 1019.4
20260506152039 56 289 2.6 5.2 0.00 0.01 0.00 1 1019.4
20260506151939 56 266 2.6 5.2 0.00 0.01 0.00 1 1019.4
20260506151839 56 256 3.5 5.2 0.00 0.01 0.00 1 1019.4
20260506151738 56 258 3.5 7.0 0.00 0.01 0.00 1 1019.3
20260506151638 57 253 2.6 7.0 0.00 0.01 0.00 1 1019.3
20260506151539 57 279 2.6 7.0 0.00 0.01 0.00 1 1019.3
20260506151439 56 263 2.6 7.0 0.00 0.01 0.00 1 1019.4
20260506151336 56 276 2.6 7.0 0.00 0.01 0.00 1 1019.3
20260506151236 56 273 2.6 7.0 0.00 0.01 0.00 1 1019.3
20260506151137 56 275 2.6 7.0 0.00 0.01 0.00 1 1019.3
20260506151037 56 250 2.6 7.0 0.00 0.01 0.00 1 1019.3
20260506150934 57 281 2.6 7.0 0.00 0.01 0.00 1 1019.3
20260506150841 57 263 1.7 5.2 0.00 0.01 0.00 1 1019.3
20260506150836 57 281 1.7 7.0 0.00 0.01 0.00 1 1019.3
20260506150632 56 299 2.6 5.2 0.00 0.01 0.00 1 1019.3
20260506150532 57 283 2.6 7.0 0.00 0.01 0.00 1 1019.3
20260506150432 56 275 2.6 7.0 0.00 0.01 0.00 1 1019.3
20260506150333 57 309 2.6 7.0 0.00 0.01 0.00 1 1019.3
20260506150232 56 293 2.6 7.0 0.00 0.01 0.00 1 1019.3
20260506150128 56 266 3.5 7.0 0.00 0.01 0.00 1 1019.3
20260506150026 56 276 3.5 7.0 0.00 0.01 0.00 1 1019.3
20260506145926 56 283 3.5 7.0 0.00 0.01 0.00 1 1019.2
20260506145826 56 297 3.5 7.0 0.00 0.01 0.00 1 1019.2
20260506145726 56 294 3.5 7.0 0.00 0.01 0.00 1 1019.2
20260506145624 56 284 3.5 7.0 0.00 0.01 0.00 1 1019.2
20260506145533 56 272 2.6 7.0 0.00 0.01 0.00 1 1019.2
20260506145529 56 283 3.5 7.0 0.00 0.01 0.00 1 1019.3
20260506145329 56 288 2.6 7.0 0.00 0.01 0.00 1 1019.2
20260506145324 56 273 2.6 7.0 0.00 0.01 0.00 1 1019.2
20260506145114 56 274 2.6 7.0 0.00 0.01 0.00 1 1019.2
20260506145014 56 281 2.6 7.0 0.00 0.01 0.00 1 1019.2
20260506144914 56 277 2.6 7.0 0.00 0.01 0.00 1 1019.2
20260506144815 56 285 2.6 7.0 0.00 0.01 0.00 1 1019.2
20260506144714 56 286 2.6 6.1 0.00 0.01 0.00 1 1019.3
20260506144608 56 288 2.6 6.1 0.00 0.01 0.00 1 1019.3
20260506144523 56 276 2.6 6.1 0.00 0.01 0.00 1 1019.2
20260506144412 56 244 2.6 6.1 0.00 0.01 0.00 1 1019.2
20260506144208 56 286 2.6 6.1 0.00 0.01 0.00 1 1019.2
20260506144113 56 286 2.6 5.2 0.00 0.01 0.00 1 1019.2
20260506144109 56 287 2.6 6.1 0.00 0.01 0.00 1 1019.2
20260506143904 56 270 2.6 5.2 0.00 0.01 0.00 1 1019.2
20260506143804 56 250 2.6 6.1 0.00 0.01 0.00 1 1019.2
20260506143703 56 275 2.6 6.1 0.00 0.01 0.00 1 1019.2
20260506143559 56 275 2.6 6.1 0.00 0.01 0.00 1 1019.2
20260506143456 56 262 2.6 6.1 0.00 0.01 0.00 1 1019.2
20260506143356 56 279 2.6 6.1 0.00 0.01 0.00 1 1019.2
20260506143256 56 250 2.6 6.1 0.00 0.01 0.00 1 1019.2
20260506143156 56 225 3.5 6.1 0.00 0.01 0.00 1 1019.2
20260506143050 56 269 3.5 7.8 0.00 0.01 0.00 1 1019.1
20260506142950 56 257 3.5 7.8 0.00 0.01 0.00 1 1019.2
20260506142851 56 273 3.5 7.8 0.00 0.01 0.00 1 1019.2
20260506142750 56 242 3.5 7.8 0.00 0.01 0.00 1 1019.2
20260506142650 56 252 4.3 7.8 0.00 0.01 0.00 1 1019.1
20260506142545 56 267 4.3 7.8 0.00 0.01 0.00 1 1019.2
20260506142444 56 270 4.3 7.8 0.00 0.01 0.00 1 1019.1
20260506142344 56 295 4.3 7.8 0.00 0.01 0.00 1 1019.1
20260506142244 56 277 4.3 7.8 0.00 0.01 0.00 1 1019.1
20260506142144 56 279 3.5 7.8 0.00 0.01 0.00 1 1019.1
20260506142038 56 284 3.5 7.0 0.00 0.01 0.00 1 1019.1
20260506141939 56 290 3.5 7.0 0.00 0.01 0.00 1 1019.0
20260506141838 56 265 4.3 7.8 0.00 0.01 0.00 1 1019.0
20260506141738 56 275 4.3 7.8 0.00 0.01 0.00 1 1019.1
20260506141641 56 278 4.3 7.8 0.00 0.01 0.00 1 1019.0
20260506141637 56 278 4.3 7.8 0.00 0.01 0.00 1 1019.0
20260506141432 56 281 4.3 7.8 0.00 0.01 0.00 1 1019.0
20260506141332 56 263 5.2 7.8 0.00 0.01 0.00 1 1019.0
20260506141232 56 264 5.2 7.8 0.00 0.01 0.00 1 1019.0
20260506141132 56 273 4.3 7.8 0.00 0.01 0.00 1 1019.0
20260506141026 56 270 4.3 7.8 0.00 0.01 0.00 1 1018.9
20260506140926 56 260 4.3 7.8 0.00 0.01 0.00 1 1018.9
20260506140827 56 263 3.5 7.8 0.00 0.01 0.00 1 1018.9
20260506140726 56 273 3.5 7.8 0.00 0.01 0.00 1 1018.9
20260506140626 56 284 2.6 7.8 0.00 0.01 0.00 1 1018.9
20260506140521 56 291 2.6 7.0 0.00 0.01 0.00 1 1018.9
20260506140421 56 279 2.6 7.0 0.00 0.01 0.00 1 1018.9
20260506140320 56 256 2.6 6.1 0.00 0.01 0.00 1 1018.8
20260506140220 56 294 2.6 5.2 0.00 0.01 0.00 1 1018.9
20260506140120 56 282 2.6 5.2 0.00 0.01 0.00 1 1018.8
20260506140015 56 226 2.6 5.2 0.00 0.01 0.00 1 1018.8
20260506135914 56 284 2.6 6.1 0.00 0.01 0.00 1 1018.9
20260506135814 56 274 2.6 6.1 0.00 0.01 0.00 1 1018.8
20260506135714 56 260 2.6 6.1 0.00 0.01 0.00 1 1018.8
20260506135629 56 292 2.6 6.1 0.00 0.01 0.00 1 1018.7
20260506135625 56 294 2.6 6.1 0.00 0.01 0.00 1 1018.8
20260506135516 56 290 2.6 6.1 0.00 0.01 0.00 1 1018.8
20260506135208 56 286 2.6 6.1 0.00 0.01 0.00 1 1018.7
20260506135108 56 278 2.6 6.1 0.00 0.01 0.00 1 1018.7
20260506135004 56 282 1.7 6.1 0.00 0.01 0.00 1 1018.7
20260506134904 56 294 1.7 6.1 0.00 0.01 0.00 1 1018.7
20260506134804 56 290 1.7 6.1 0.00 0.01 0.00 1 1018.7
20260506134704 56 263 1.7 6.1 0.00 0.01 0.00 1 1018.6
20260506134602 56 274 1.7 6.1 0.00 0.01 0.00 1 1018.7
20260506134456 56 269 1.7 3.5 0.00 0.01 0.00 1 1018.6
20260506134357 56 296 1.7 3.5 0.00 0.01 0.00 1 1018.6
20260506134257 56 296 1.7 4.3 0.00 0.01 0.00 1 1018.7
20260506134156 56 297 1.7 5.2 0.00 0.01 0.00 1 1018.6
20260506134056 56 279 1.7 5.2 0.00 0.01 0.00 1 1018.7
20260506133951 56 279 1.7 5.2 0.00 0.01 0.00 1 1018.6
20260506133851 56 292 1.7 5.2 0.00 0.01 0.00 1 1018.7
20260506133750 56 296 1.7 5.2 0.00 0.01 0.00 1 1018.7
20260506133650 56 304 1.7 5.2 0.00 0.01 0.00 1 1018.6
20260506133550 56 279 1.7 5.2 0.00 0.01 0.00 1 1018.6
20260506133445 56 301 1.7 5.2 0.00 0.01 0.00 1 1018.6
20260506133344 56 319 2.6 5.2 0.00 0.01 0.00 1 1018.6
20260506133244 56 307 1.7 5.2 0.00 0.01 0.00 1 1018.6
20260506133144 56 306 1.7 5.2 0.00 0.01 0.00 1 1018.6
20260506133043 56 297 1.7 5.2 0.00 0.01 0.00 1 1018.6
20260506132939 56 321 1.7 5.2 0.00 0.01 0.00 1 1018.6
20260506132839 56 300 1.7 5.2 0.00 0.01 0.00 1 1018.6
20260506132738 56 299 1.7 5.2 0.00 0.01 0.00 1 1018.6
20260506132638 56 272 1.7 5.2 0.00 0.01 0.00 1 1018.6
20260506132538 56 271 1.7 5.2 0.00 0.01 0.00 1 1018.5
20260506132436 56 279 1.7 5.2 0.00 0.01 0.00 1 1018.6
20260506132336 56 275 1.7 5.2 0.00 0.01 0.00 1 1018.6
20260506132237 56 275 1.7 5.2 0.00 0.01 0.00 1 1018.6
20260506132134 56 275 1.7 5.2 0.00 0.01 0.00 1 1018.6
20260506132032 56 275 1.7 5.2 0.00 0.01 0.00 1 1018.6
20260506131932 56 275 1.7 5.2 0.00 0.01 0.00 1 1018.5
20260506131831 56 301 1.7 5.2 0.00 0.01 0.00 1 1018.6
20260506131730 56 301 1.7 5.2 0.00 0.01 0.00 1 1018.5
20260506131639 56 275 1.7 5.2 0.00 0.01 0.00 1 1018.5
20260506131635 56 275 2.6 5.2 0.00 0.01 0.00 1 1018.5
20260506131630 56 283 1.7 5.2 0.00 0.01 0.00 1 1018.5
20260506131321 55 277 1.7 5.2 0.00 0.01 0.00 1 1018.5
20260506131221 56 285 1.7 5.2 0.00 0.01 0.00 1 1018.5
20260506131120 56 286 1.7 5.2 0.00 0.01 0.00 1 1018.5
20260506131020 56 275 1.7 5.2 0.00 0.01 0.00 1 1018.5
20260506130920 56 277 1.7 5.2 0.00 0.01 0.00 1 1018.4
20260506130818 55 275 1.7 5.2 0.00 0.01 0.00 1 1018.4
20260506130719 55 260 1.7 3.5 0.00 0.01 0.00 1 1018.4
20260506130616 55 260 1.7 3.5 0.00 0.01 0.00 1 1018.4
20260506130514 55 260 1.7 3.5 0.00 0.01 0.00 1 1018.4
20260506130410 55 283 1.7 3.5 0.00 0.01 0.00 1 1018.4
20260506130308 55 286 1.7 3.5 0.00 0.01 0.00 1 1018.4
20260506130208 55 286 1.7 3.5 0.00 0.01 0.00 1 1018.4
20260506130108 55 304 1.7 3.5 0.00 0.01 0.00 1 1018.4
20260506130008 55 303 2.6 4.3 0.00 0.01 0.00 1 1018.4
20260506125905 55 289 2.6 5.2 0.00 0.01 0.00 1 1018.4
20260506125802 55 288 2.6 5.2 0.00 0.01 0.00 1 1018.4
20260506125702 55 293 2.6 5.2 0.00 0.01 0.00 1 1018.4
20260506125602 55 307 2.6 5.2 0.00 0.01 0.00 1 1018.4
20260506125502 55 290 2.6 5.2 0.00 0.01 0.00 1 1018.4
20260506125402 55 287 2.6 7.0 0.00 0.01 0.00 1 1018.4
20260506125307 55 288 2.6 7.0 0.00 0.01 0.00 1 1018.4
20260506125305 55 288 2.6 7.0 0.00 0.01 0.00 1 1018.4
20260506125058 55 282 3.5 7.0 0.00 0.01 0.00 1 1018.4
20260506124956 55 272 3.5 7.0 0.00 0.01 0.00 1 1018.4
20260506124856 56 292 3.5 7.0 0.00 0.01 0.00 1 1018.4
20260506124754 55 289 3.5 7.0 0.00 0.01 0.00 1 1018.4
20260506124654 56 284 3.5 7.0 0.00 0.01 0.00 1 1018.3
20260506124552 56 284 3.5 7.0 0.00 0.01 0.00 1 1018.4
20260506124450 56 276 3.5 7.0 0.00 0.01 0.00 1 1018.3
20260506124344 56 286 3.5 7.8 0.00 0.01 0.00 1 1018.3
20260506124244 56 277 3.5 7.8 0.00 0.01 0.00 1 1018.3
20260506124144 56 290 3.5 7.8 0.00 0.01 0.00 1 1018.3
20260506124044 56 288 3.5 7.8 0.00 0.01 0.00 1 1018.3
20260506123944 56 279 3.5 7.8 0.00 0.01 0.00 1 1018.3
20260506123840 56 281 3.5 7.8 0.00 0.01 0.00 1 1018.4
20260506123738 56 303 3.5 7.8 0.00 0.01 0.00 1 1018.3
20260506123639 56 271 3.5 7.8 0.00 0.01 0.00 1 1018.3
20260506123538 56 279 3.5 7.8 0.00 0.01 0.00 1 1018.3
20260506123438 56 283 2.6 7.8 0.00 0.01 0.00 1 1018.3
20260506123332 56 267 2.6 6.1 0.00 0.01 0.00 1 1018.3
20260506123232 56 273 2.6 6.1 0.00 0.01 0.00 1 1018.3
20260506123132 56 284 2.6 6.1 0.00 0.01 0.00 1 1018.3
20260506123032 56 284 2.6 6.1 0.00 0.01 0.00 1 1018.3
20260506122932 56 311 2.6 6.1 0.00 0.01 0.00 1 1018.3
20260506122826 56 288 2.6 6.1 0.00 0.01 0.00 1 1018.3
20260506122726 56 287 2.6 6.1 0.00 0.01 0.00 1 1018.3
20260506122626 56 289 2.6 6.1 0.00 0.01 0.00 1 1018.3
20260506122526 56 288 2.6 6.1 0.00 0.01 0.00 1 1018.3
20260506122426 56 294 2.6 6.1 0.00 0.01 0.00 1 1018.3
20260506122320 56 301 2.6 6.1 0.00 0.01 0.00 1 1018.3
20260506122220 56 293 2.6 6.1 0.00 0.01 0.00 1 1018.2
20260506122120 56 277 1.7 6.1 0.00 0.01 0.00 1 1018.2
20260506122020 56 279 1.7 6.1 0.00 0.01 0.00 1 1018.2
20260506121920 56 298 1.7 6.1 0.00 0.01 0.00 1 1018.2
20260506121817 56 284 1.7 6.1 0.00 0.01 0.00 1 1018.2
20260506121717 56 287 1.7 6.1 0.00 0.01 0.00 1 1018.2
20260506121618 56 294 1.7 3.5 0.00 0.01 0.00 1 1018.2
20260506121516 56 290 1.7 3.5 0.00 0.01 0.00 1 1018.1
20260506121414 56 291 1.7 5.2 0.00 0.01 0.00 1 1018.2
20260506121308 56 292 2.6 7.0 0.00 0.01 0.00 1 1018.2
20260506121208 56 292 2.6 7.0 0.00 0.01 0.00 1 1018.1
20260506121108 56 292 2.6 7.0 0.00 0.01 0.00 1 1018.1
20260506121008 56 277 2.6 7.0 0.00 0.01 0.00 1 1018.1
20260506120907 56 300 2.6 7.0 0.00 0.01 0.00 1 1018.1
20260506120808 56 294 1.7 7.0 0.00 0.01 0.00 1 1018.1
20260506120706 56 296 2.6 7.0 0.00 0.01 0.00 1 1018.2
20260506120604 56 296 2.6 7.0 0.00 0.01 0.00 1 1018.1
20260506120504 56 292 2.6 7.0 0.00 0.01 0.00 1 1018.2
20260506120403 56 300 2.6 7.0 0.00 0.01 0.00 1 1018.1
20260506120304 56 286 1.7 5.2 0.00 0.01 0.00 1 1018.1
20260506120204 56 298 1.7 5.2 0.00 0.01 0.00 1 1018.1
20260506120104 56 298 2.6 5.2 0.00 0.01 0.00 1 1018.2
20260506120004 56 279 2.6 6.1 0.00 0.01 0.00 1 1018.1
20260506115903 56 286 2.6 6.1 0.00 0.01 0.00 1 1018.1
20260506115804 56 284 2.6 6.1 0.00 0.01 0.00 1 1018.1
20260506115704 56 285 2.6 6.1 0.00 0.01 0.00 1 1018.1
20260506115604 56 269 2.6 6.1 0.00 0.01 0.00 1 1018.1
20260506115504 56 295 2.6 6.1 0.00 0.01 0.00 1 1018.2
20260506115404 56 275 2.6 6.1 0.00 0.01 0.00 1 1018.1
20260506115306 56 275 2.6 6.1 0.00 0.01 0.00 1 1018.1
20260506115204 56 281 2.6 6.1 0.00 0.01 0.00 1 1018.1
20260506115101 56 275 1.7 6.1 0.00 0.01 0.00 1 1018.1
20260506115002 56 283 1.7 5.2 0.00 0.01 0.00 1 1018.1
20260506114902 56 285 1.7 3.5 0.00 0.01 0.00 1 1018.1
20260506114800 56 284 1.7 6.1 0.00 0.01 0.00 1 1018.1
20260506114700 56 282 2.6 6.1 0.00 0.01 0.00 1 1018.1
20260506114600 56 316 2.6 6.1 0.00 0.01 0.00 1 1018.1
20260506114500 56 280 2.6 6.1 0.00 0.01 0.00 1 1018.1
20260506114400 56 289 2.6 6.1 0.00 0.01 0.00 1 1018.1
20260506114300 56 290 2.6 6.1 0.00 0.01 0.00 1 1018.1
20260506114200 56 292 2.6 6.1 0.00 0.01 0.00 1 1018.1
20260506114100 56 295 2.6 6.1 0.00 0.01 0.00 1 1018.1
20260506114000 56 288 2.6 6.1 0.00 0.01 0.00 1 1018.1
20260506113859 56 275 2.6 6.1 0.00 0.01 0.00 1 1018.1
20260506113800 56 271 2.6 6.1 0.00 0.01 0.00 1 1018.1
20260506113700 56 294 2.6 6.1 0.00 0.01 0.00 1 1018.0
20260506113600 56 296 2.6 6.1 0.00 0.01 0.00 1 1018.1
20260506113500 56 275 2.6 6.1 0.00 0.01 0.00 1 1018.0
20260506113357 56 273 2.6 6.1 0.00 0.01 0.00 1 1018.0
20260506113257 56 287 2.6 6.1 0.00 0.01 0.00 1 1018.0
20260506113158 56 288 3.5 6.1 0.00 0.01 0.00 1 1017.9
20260506113056 56 267 3.5 6.1 0.00 0.01 0.00 1 1017.9
20260506112956 56 277 3.5 6.1 0.00 0.01 0.00 1 1017.9
20260506112856 56 281 2.6 6.1 0.00 0.01 0.00 1 1017.9
20260506112756 56 280 2.6 6.1 0.00 0.01 0.00 1 1017.9
20260506112654 56 298 2.6 6.1 0.00 0.01 0.00 1 1017.9
20260506112554 56 289 2.6 6.1 0.00 0.01 0.00 1 1017.9
20260506112454 56 293 2.6 6.1 0.00 0.01 0.00 1 1017.9
20260506112354 56 288 2.6 6.1 0.00 0.01 0.00 1 1017.9
20260506112252 56 290 2.6 6.1 0.00 0.01 0.00 1 1017.8
20260506112152 56 279 3.5 6.1 0.00 0.01 0.00 1 1017.9
20260506112052 55 290 3.5 6.1 0.00 0.01 0.00 1 1017.9
20260506111951 55 298 3.5 6.1 0.00 0.01 0.00 1 1017.9
20260506111852 55 292 3.5 6.1 0.00 0.01 0.00 1 1017.9
20260506111752 55 279 3.5 6.1 0.00 0.01 0.00 1 1017.9
20260506111650 55 279 3.5 6.1 0.00 0.01 0.00 1 1017.9
20260506111550 55 274 3.5 6.1 0.00 0.01 0.00 1 1017.9
20260506111449 55 279 3.5 6.1 0.00 0.01 0.00 1 1017.9
20260506111350 55 291 3.5 6.1 0.00 0.01 0.00 1 1017.8
20260506111250 55 288 3.5 7.0 0.00 0.01 0.00 1 1017.8
20260506111150 55 279 3.5 7.0 0.00 0.01 0.00 1 1017.8
20260506111050 55 286 3.5 7.0 0.00 0.01 0.00 1 1017.8
20260506110950 55 275 3.5 7.0 0.00 0.01 0.00 1 1017.8
20260506110849 55 282 3.5 7.0 0.00 0.01 0.00 1 1017.8
20260506110750 55 273 3.5 7.0 0.00 0.01 0.00 1 1017.8
20260506110649 55 284 3.5 7.0 0.00 0.01 0.00 1 1017.8
20260506110550 55 284 3.5 7.0 0.00 0.01 0.00 1 1017.8
20260506110450 55 281 3.5 7.0 0.00 0.01 0.00 1 1017.8
20260506110350 55 280 3.5 7.0 0.00 0.01 0.00 1 1017.8
20260506110303 55 286 3.5 6.1 0.00 0.01 0.00 1 1017.7
20260506110154 55 274 2.6 6.1 0.00 0.01 0.00 1 1017.7
20260506105949 56 281 2.6 6.1 0.00 0.01 0.00 1 1017.8
20260506105850 56 281 2.6 6.1 0.00 0.01 0.00 1 1017.7
20260506105744 56 279 2.6 6.1 0.00 0.01 0.00 1 1017.7
20260506105644 56 284 2.6 6.1 0.00 0.01 0.00 1 1017.7
20260506105544 56 309 2.6 7.0 0.00 0.01 0.00 1 1017.8
20260506105444 56 278 3.5 7.0 0.00 0.01 0.00 1 1017.7
20260506105343 56 279 3.5 7.8 0.00 0.01 0.00 1 1017.7
20260506105244 56 296 3.5 7.8 0.00 0.01 0.00 1 1017.7
20260506105153 56 248 3.5 7.8 0.00 0.01 0.00 1 1017.7
20260506105148 56 275 3.5 7.8 0.00 0.01 0.00 1 1017.7
20260506104944 56 297 4.3 7.8 0.00 0.01 0.00 1 1017.7
20260506104844 56 286 4.3 7.8 0.00 0.01 0.00 1 1017.7
20260506104744 56 296 4.3 7.8 0.00 0.01 0.00 1 1017.7
20260506104644 56 286 4.3 7.8 0.00 0.01 0.00 1 1017.7
20260506104538 56 279 4.3 7.8 0.00 0.01 0.00 1 1017.7
20260506104438 56 326 4.3 7.8 0.00 0.01 0.00 1 1017.7
20260506104346 56 284 3.5 7.0 0.00 0.01 0.00 1 1017.7
20260506104342 56 288 4.3 7.0 0.00 0.01 0.00 1 1017.7
20260506104138 56 286 4.3 7.0 0.00 0.01 0.00 1 1017.7
20260506104037 56 288 4.3 7.0 0.00 0.01 0.00 1 1017.7
20260506103938 56 278 4.3 7.0 0.00 0.01 0.00 1 1017.6
20260506103838 56 277 4.3 7.0 0.00 0.01 0.00 1 1017.6
20260506103738 56 285 4.3 7.0 0.00 0.01 0.00 1 1017.7
20260506103638 56 277 4.3 9.6 0.00 0.01 0.00 1 1017.7
20260506103537 56 272 4.3 9.6 0.00 0.01 0.00 1 1017.7
20260506103437 56 277 4.3 9.6 0.00 0.01 0.00 1 1017.7
20260506103334 56 270 4.3 9.6 0.00 0.01 0.00 1 1017.7
20260506103234 56 267 4.3 9.6 0.00 0.01 0.00 1 1017.7
20260506103134 56 286 4.3 9.6 0.00 0.01 0.00 1 1017.7
20260506103034 56 296 4.3 9.6 0.00 0.01 0.00 1 1017.7
20260506102933 56 273 4.3 9.6 0.00 0.01 0.00 1 1017.7
20260506102833 56 295 4.3 9.6 0.00 0.01 0.00 1 1017.6
20260506102734 56 289 3.5 9.6 0.00 0.01 0.00 1 1017.7
20260506102633 55 288 3.5 7.8 0.00 0.01 0.00 1 1017.7
20260506102534 56 279 3.5 7.8 0.00 0.01 0.00 1 1017.7
20260506102434 55 280 3.5 7.8 0.00 0.01 0.00 1 1017.7
20260506102334 55 281 3.5 7.8 0.00 0.01 0.00 1 1017.7
20260506102234 55 279 4.3 7.8 0.00 0.01 0.00 1 1017.7
20260506102133 55 284 4.3 7.8 0.00 0.01 0.00 1 1017.7
20260506102034 55 281 3.5 7.8 0.00 0.01 0.00 1 1017.6
20260506101934 55 267 3.5 6.1 0.00 0.02 0.00 1 1017.6
20260506101834 55 269 3.5 6.1 0.00 0.02 0.00 1 1017.6
20260506101734 55 281 4.3 6.1 0.00 0.02 0.00 1 1017.6
20260506101634 55 279 3.5 7.0 0.00 0.02 0.00 1 1017.6
20260506101534 55 286 3.5 7.0 0.00 0.02 0.00 1 1017.6
20260506101430 55 255 3.5 7.0 0.00 0.02 0.00 1 1017.6
20260506101330 55 279 3.5 7.0 0.00 0.02 0.00 1 1017.6
20260506101230 55 267 3.5 7.0 0.00 0.02 0.00 1 1017.6
20260506101129 55 281 3.5 7.0 0.00 0.02 0.00 1 1017.6
20260506101029 55 269 3.5 7.0 0.00 0.02 0.00 1 1017.6
20260506100930 55 279 3.5 7.0 0.00 0.02 0.00 1 1017.6
20260506100830 55 276 3.5 7.0 0.00 0.02 0.00 1 1017.6
20260506100730 55 276 3.5 7.0 0.00 0.02 0.00 1 1017.6
20260506100630 55 272 3.5 7.0 0.00 0.02 0.00 1 1017.5
20260506100550 55 304 3.5 6.1 0.00 0.02 0.00 1 1017.5
20260506100430 55 269 3.5 6.1 0.00 0.02 0.00 1 1017.6
20260506100330 55 259 3.5 6.1 0.00 0.02 0.00 1 1017.5
20260506100230 55 286 3.5 6.1 0.00 0.02 0.00 1 1017.6
20260506100130 55 276 3.5 6.1 0.00 0.02 0.00 1 1017.6
20260506100030 55 283 3.5 7.0 0.00 0.02 0.00 1 1017.5
20260506095929 55 278 3.5 7.0 0.00 0.02 0.00 1 1017.6
20260506095830 55 286 3.5 7.0 0.00 0.02 0.00 1 1017.6
20260506095730 56 292 3.5 7.0 0.00 0.02 0.00 1 1017.6
20260506095630 55 281 3.5 7.0 0.00 0.02 0.00 1 1017.6
20260506095525 55 277 3.5 7.0 0.00 0.02 0.00 1 1017.5
20260506095426 55 286 3.5 7.0 0.00 0.02 0.00 1 1017.5
20260506095326 55 286 3.5 7.8 0.00 0.02 0.00 1 1017.6
20260506095226 55 269 3.5 7.8 0.00 0.02 0.00 1 1017.6
20260506095126 55 286 3.5 7.8 0.00 0.02 0.00 1 1017.6
20260506095023 55 290 2.6 7.8 0.00 0.02 0.00 1 1017.6
20260506094924 55 274 2.6 7.8 0.00 0.02 0.00 1 1017.6
20260506094824 56 294 2.6 7.8 0.00 0.02 0.00 1 1017.6
20260506094732 56 308 2.6 7.8 0.00 0.02 0.00 1 1017.6
20260506094728 56 282 2.6 7.8 0.00 0.02 0.00 1 1017.6
20260506094532 56 257 2.6 7.8 0.00 0.02 0.00 1 1017.7
20260506094528 56 288 2.6 7.8 0.00 0.02 0.00 1 1017.6
20260506094324 56 279 2.6 7.8 0.00 0.02 0.00 1 1017.7
20260506094223 56 279 2.6 7.8 0.00 0.02 0.00 1 1017.7
20260506094122 56 286 3.5 7.8 0.00 0.02 0.00 1 1017.7
20260506094022 56 259 3.5 7.8 0.00 0.02 0.00 1 1017.7
20260506093922 56 271 3.5 7.8 0.00 0.02 0.00 1 1017.7
20260506093820 56 290 3.5 7.8 0.00 0.02 0.00 1 1017.7
20260506093720 56 294 3.5 7.8 0.00 0.02 0.00 1 1017.7
20260506093619 56 281 3.5 7.8 0.00 0.02 0.00 1 1017.7
20260506093519 56 307 3.5 7.8 0.00 0.02 0.00 1 1017.6
20260506093420 56 276 4.3 7.8 0.00 0.02 0.00 1 1017.7
20260506093320 56 277 4.3 8.7 0.00 0.02 0.00 1 1017.6
20260506093217 56 277 4.3 8.7 0.00 0.02 0.00 1 1017.6
20260506093117 56 275 4.3 8.7 0.00 0.02 0.00 1 1017.6
20260506093018 56 289 4.3 8.7 0.00 0.02 0.00 1 1017.6
20260506092918 56 281 4.3 8.7 0.00 0.02 0.00 1 1017.6
20260506092818 56 275 4.3 8.7 0.00 0.02 0.00 1 1017.6
20260506092717 56 301 4.3 8.7 0.00 0.02 0.00 1 1017.6
20260506092617 56 266 4.3 8.7 0.00 0.02 0.00 1 1017.5
20260506092517 56 270 4.3 8.7 0.00 0.02 0.00 1 1017.5
20260506092417 56 281 4.3 8.7 0.00 0.02 0.00 1 1017.5
20260506092318 56 286 4.3 7.8 0.00 0.02 0.00 1 1017.5
20260506092218 56 273 4.3 7.8 0.00 0.02 0.00 1 1017.5
20260506092116 56 286 4.3 7.8 0.00 0.02 0.00 1 1017.5
20260506092015 56 288 4.3 7.8 0.00 0.02 0.00 1 1017.5
20260506091914 56 284 4.3 7.8 0.00 0.02 0.00 1 1017.5
20260506091814 56 279 4.3 7.8 0.00 0.02 0.00 1 1017.5
20260506091714 56 294 4.3 7.8 0.00 0.02 0.00 1 1017.5
20260506091614 56 281 4.3 7.8 0.00 0.02 0.00 1 1017.5
20260506091514 56 252 4.3 7.8 0.00 0.02 0.00 1 1017.5
20260506091414 56 296 4.3 7.8 0.00 0.02 0.00 1 1017.5
20260506091322 56 292 4.3 7.8 0.00 0.02 0.00 1 1017.5
20260506091318 56 281 4.3 7.8 0.00 0.02 0.00 1 1017.5
20260506091113 56 259 3.5 7.8 0.00 0.02 0.00 1 1017.5
20260506091013 56 273 3.5 7.8 0.00 0.02 0.00 1 1017.5
20260506090910 56 277 3.5 7.8 0.00 0.02 0.00 1 1017.5
20260506090810 56 294 3.5 7.8 0.00 0.02 0.00 1 1017.5
20260506090710 56 279 3.5 7.0 0.00 0.02 0.00 1 1017.5
20260506090608 56 294 3.5 7.8 0.00 0.02 0.00 1 1017.5
20260506090507 56 265 3.5 7.8 0.00 0.02 0.00 1 1017.5
20260506090404 56 277 4.3 7.8 0.00 0.02 0.00 1 1017.5
20260506090301 56 280 4.3 7.8 0.00 0.02 0.00 1 1017.5
20260506090159 56 274 4.3 7.8 0.00 0.02 0.00 1 1017.5
20260506090100 56 265 4.3 7.8 0.00 0.02 0.00 1 1017.5
20260506085958 56 278 4.3 7.8 0.00 0.02 0.00 1 1017.5
20260506085857 56 306 4.3 9.6 0.00 0.02 0.00 1 1017.5
20260506085756 56 277 5.2 9.6 0.00 0.02 0.00 1 1017.6
20260506085655 56 288 5.2 9.6 0.00 0.02 0.00 1 1017.5
20260506085554 56 267 5.2 9.6 0.00 0.02 0.00 1 1017.5
20260506085450 56 286 5.2 9.6 0.00 0.02 0.00 1 1017.5
20260506085348 56 283 4.3 9.6 0.00 0.02 0.00 1 1017.5
20260506085246 56 286 4.3 9.6 0.00 0.02 0.00 1 1017.5
20260506085145 56 279 4.3 9.6 0.00 0.02 0.00 1 1017.5
20260506085045 56 281 4.3 9.6 0.00 0.02 0.00 1 1017.5
20260506084945 56 284 4.3 9.6 0.00 0.02 0.00 1 1017.5
20260506084840 56 286 4.3 8.7 0.00 0.02 0.00 1 1017.4
20260506084739 56 291 4.3 8.7 0.00 0.02 0.00 1 1017.5
20260506084639 56 295 4.3 8.7 0.00 0.02 0.00 1 1017.5
20260506084558 56 271 4.3 8.7 0.00 0.02 0.00 1 1017.6
20260506084554 56 300 5.2 8.7 0.00 0.02 0.00 1 1017.5
20260506084550 56 286 5.2 8.7 0.00 0.02 0.00 1 1017.6
20260506084546 56 272 4.3 8.7 0.00 0.02 0.00 1 1017.6
20260506084133 56 281 5.2 8.7 0.00 0.02 0.00 1 1017.5
20260506084034 56 261 4.3 8.7 0.00 0.02 0.00 1 1017.6
20260506083931 56 274 4.3 8.7 0.00 0.02 0.00 1 1017.6
20260506083826 56 281 5.2 8.7 0.00 0.02 0.00 1 1017.5
20260506083726 56 310 5.2 8.7 0.00 0.02 0.00 1 1017.5
20260506083626 56 271 5.2 8.7 0.00 0.02 0.00 1 1017.5
20260506083526 56 279 5.2 8.7 0.00 0.02 0.00 1 1017.5
20260506083425 56 283 5.2 8.7 0.00 0.02 0.00 1 1017.5
20260506083322 56 284 4.3 8.7 0.00 0.02 0.00 1 1017.5
20260506083219 56 275 5.2 7.8 0.00 0.02 0.00 1 1017.5
20260506083119 56 282 4.3 7.8 0.00 0.02 0.00 1 1017.6
20260506083019 56 263 5.2 7.8 0.00 0.03 0.00 1 1017.6
20260506082917 56 282 5.2 7.8 0.00 0.03 0.00 1 1017.6
20260506082810 56 281 4.3 7.8 0.00 0.03 0.00 1 1017.6
20260506082710 56 286 4.3 7.8 0.00 0.03 0.00 1 1017.6
20260506082610 56 277 4.3 7.8 0.00 0.03 0.00 1 1017.6
20260506082509 56 275 4.3 7.8 0.00 0.03 0.00 1 1017.7
20260506082411 56 279 3.5 7.8 0.00 0.03 0.00 1 1017.7
20260506082408 56 277 3.5 7.8 0.00 0.03 0.00 1 1017.7
20260506082203 56 275 3.5 7.8 0.00 0.03 0.00 1 1017.7
20260506082103 56 300 3.5 7.8 0.00 0.03 0.00 1 1017.7
20260506082004 56 274 2.6 7.8 0.00 0.04 0.00 1 1017.7
20260506081902 56 278 2.6 6.1 0.00 0.04 0.00 1 1017.7
20260506081756 56 263 2.6 6.1 0.00 0.04 0.00 1 1017.7
20260506081656 56 272 2.6 6.1 0.00 0.04 0.00 1 1017.7
20260506081555 56 239 2.6 6.1 0.00 0.04 0.00 1 1017.8
20260506081455 56 266 2.6 6.1 0.00 0.04 0.00 1 1017.7
20260506081355 56 281 2.6 6.1 0.00 0.04 0.00 1 1017.7
20260506081258 56 281 2.6 6.1 0.00 0.04 0.00 1 1017.7
20260506081254 56 279 2.6 6.1 0.00 0.04 0.00 1 1017.7
20260506081050 56 280 3.5 6.1 0.00 0.04 0.00 1 1017.7
20260506080950 56 294 3.5 6.1 0.00 0.04 0.00 1 1017.7
20260506080849 56 269 3.5 6.1 0.00 0.04 0.00 1 1017.7
20260506080744 56 292 3.5 6.1 0.00 0.04 0.00 1 1017.7
20260506080644 56 271 3.5 6.1 0.00 0.04 0.00 1 1017.7
20260506080543 56 277 3.5 7.0 0.00 0.05 0.00 1 1017.7